[{"header": {"dx": 0.06612293990616946, "dy": 0.0552356325346848, "nx": 98, "ny": 59, "la1": 35.046912555036876, "la2": 31.78801023549047, "lo1": -121.43107172385933, "lo2": -114.95102361305473, "refTime": "2026042122", "parameterCategory": 1, "parameterNumber": 2}, "data": [9.63, 9.01, 8.91, 8.91, 8.68, 8.68, 8.43, 8.43, 7.64, 7.44, 6.59, 6.87, 9.04, 9.67, 10.04, 10.04, 10.43, 10.43, 11.33, 11.33, 11.6, 11.6, 10.63, 10.23, 9.6, 9.05, 9.4, 10.01, 9.96, 10.01, 9.4, 8.18, 5.94, 3.13, 0.0, -2.53, -1.98, -1.6, 0.0, 0.0, 1.2, 4.6, 6.23, 6.79, 6.98, 6.31, 7.36, 7.49, 7.25, 8.56, 9.89, 10.98, 12.42, 12.78, 13.85, 14.2, 14.5, 14.24, 13.88, 12.84, 12.09, 12.5, 11.47, 8.84, 7.23, 6.66, 8.03, 9.8, 10.59, 12.23, 13.37, 13.46, 14.51, 14.85, 15.35, 15.77, 15.52, 14.56, 13.76, 9.24, 2.7, -0.0, -0.8, -0.83, -0.0, 1.48, 2.44, 1.64, 0.83, 0.83, 0.83, 1.64, 2.53, 3.32, 4.21, 3.96, 3.34, 2.39, 9.7, 9.21, 8.51, 8.51, 8.51, 8.68, 8.68, 7.9, 7.72, 6.87, 6.87, 8.31, 9.04, 9.3, 10.94, 10.55, 9.65, 10.94, 10.94, 10.23, 11.5, 11.12, 10.04, 9.48, 8.06, 8.68, 9.34, 9.62, 9.96, 9.62, 9.26, 8.53, 9.0, 9.03, 7.37, 3.82, 0.0, -1.13, -1.4, 0.0, 2.21, 5.2, 5.7, 4.83, 6.31, 7.23, 7.49, 7.38, 7.9, 8.95, 9.6, 11.06, 12.16, 12.42, 13.68, 14.51, 13.88, 13.88, 12.84, 12.09, 12.09, 11.47, 10.01, 7.49, 6.28, 7.2, 8.03, 9.8, 11.48, 13.04, 13.8, 14.24, 14.49, 14.79, 15.24, 15.52, 14.58, 14.56, 13.76, 9.24, 2.7, -0.0, -0.8, -0.83, -0.0, 1.48, 2.44, 1.64, 0.83, 0.83, 0.83, 1.64, 2.53, 3.32, 4.21, 3.96, 3.34, 2.39, 9.7, 9.21, 8.79, 8.72, 8.51, 8.51, 8.28, 8.15, 7.35, 7.15, 6.79, 6.87, 9.04, 10.04, 9.84, 10.4, 10.55, 10.55, 10.4, 11.99, 10.63, 11.2, 10.04, 9.3, 9.08, 8.6, 9.26, 9.62, 9.34, 8.53, 8.01, 8.45, 8.84, 9.8, 8.79, 8.48, 4.92, 1.9, 0.0, 1.79, 3.58, 5.34, 4.6, 4.93, 6.52, 7.25, 7.12, 7.12, 7.9, 8.95, 10.43, 11.14, 11.87, 12.52, 13.05, 13.51, 13.23, 12.84, 12.09, 11.7, 11.38, 10.75, 8.05, 6.4, 5.96, 7.2, 8.86, 10.59, 11.92, 13.12, 13.49, 13.89, 13.87, 13.83, 14.71, 14.58, 14.42, 14.64, 12.87, 9.49, 3.25, -0.0, -0.0, -0.0, -0.0, 0.76, 1.45, 0.82, -0.0, -0.0, -0.0, 0.82, 1.7, 2.53, 3.44, 3.44, 3.23, 2.54, 9.7, 9.21, 8.79, 8.72, 8.72, 8.51, 8.4, 7.76, 7.61, 6.79, 6.79, 6.79, 9.05, 9.27, 10.04, 10.55, 10.15, 10.32, 10.15, 10.96, 10.63, 10.55, 9.48, 8.65, 8.93, 9.48, 9.26, 8.93, 7.9, 6.98, 6.7, 7.25, 8.18, 10.19, 9.5, 8.53, 8.22, 7.9, 5.58, 4.22, 4.54, 4.83, 4.68, 5.6, 6.56, 6.7, 6.45, 7.24, 8.01, 9.06, 10.15, 11.2, 11.2, 11.87, 12.22, 12.22, 12.16, 11.7, 11.29, 11.38, 11.47, 9.7, 7.13, 5.79, 6.54, 7.4, 9.23, 10.43, 12.28, 13.36, 13.8, 13.51, 13.27, 13.19, 13.48, 13.91, 13.72, 13.44, 12.86, 9.49, 3.02, 0.84, 0.84, 0.81, 0.83, 0.86, 0.86, 0.82, -0.0, -0.0, -0.0, -0.0, 0.86, 2.53, 3.32, 3.44, 2.45, 2.54, 9.7, 9.7, 9.21, 8.72, 8.3, 8.22, 8.0, 7.76, 7.23, 7.07, 6.7, 6.79, 9.05, 9.42, 10.0, 10.85, 10.15, 10.32, 9.9, 10.0, 10.55, 9.66, 9.3, 8.22, 7.97, 8.53, 8.53, 8.85, 7.51, 6.0, 5.86, 6.7, 7.38, 8.95, 9.22, 8.94, 9.8, 11.63, 8.93, 6.64, 5.1, 4.96, 4.8, 5.72, 6.7, 6.45, 6.57, 7.08, 7.82, 8.85, 9.89, 10.51, 11.54, 11.54, 11.47, 11.47, 10.95, 10.54, 10.54, 10.95, 10.01, 8.05, 6.6, 5.83, 7.27, 8.25, 8.99, 9.8, 11.65, 12.87, 14.0, 13.74, 13.06, 13.27, 13.11, 12.22, 13.01, 12.74, 11.59, 8.63, 3.02, 0.79, 1.58, 2.47, 2.45, 1.64, 1.7, 0.82, 0.85, 0.85, 0.89, -0.0, -0.0, 1.6, 3.23, 3.23, 2.45, 2.54, 9.86, 9.86, 9.39, 8.91, 8.48, 8.22, 8.0, 8.0, 7.48, 6.7, 6.7, 7.07, 9.03, 9.77, 9.77, 9.9, 9.9, 10.17, 9.42, 9.42, 9.43, 9.0, 8.85, 7.95, 7.27, 6.98, 7.27, 5.92, 5.86, 7.69, 6.84, 6.98, 7.48, 8.12, 9.17, 9.85, 10.18, 11.25, 9.62, 6.18, 4.03, 3.52, 3.95, 4.68, 5.86, 6.33, 7.24, 7.36, 7.9, 8.22, 8.53, 10.12, 10.75, 11.06, 10.65, 10.25, 9.77, 9.77, 10.54, 10.34, 8.95, 6.73, 5.67, 6.31, 7.34, 8.96, 9.23, 9.54, 10.59, 12.02, 13.91, 14.3, 14.77, 14.51, 13.25, 12.45, 12.09, 11.95, 10.25, 7.2, 1.7, 0.82, 2.43, 3.28, 4.0, 3.44, 2.51, 2.49, 3.36, 3.36, 2.41, 0.83, 0.83, 1.65, 2.45, 2.54, 2.54, 2.54, 9.91, 9.86, 9.39, 8.48, 8.0, 8.0, 7.81, 7.81, 7.48, 6.95, 6.95, 6.7, 9.42, 9.36, 10.6, 8.95, 9.36, 10.17, 9.6, 8.88, 8.32, 8.03, 7.59, 7.9, 7.95, 7.27, 6.98, 5.92, 7.24, 7.1, 8.83, 6.84, 6.57, 7.78, 8.16, 9.17, 9.56, 11.52, 10.09, 5.1, 2.26, 2.33, 3.39, 4.54, 5.86, 6.33, 7.9, 8.18, 7.51, 7.95, 7.96, 9.06, 10.34, 10.65, 9.77, 9.77, 8.99, 8.99, 9.89, 9.7, 7.38, 5.73, 5.61, 6.64, 8.0, 8.96, 9.67, 8.99, 9.92, 12.23, 13.74, 14.82, 15.01, 15.86, 14.79, 13.64, 12.53, 10.58, 7.2, 4.01, 1.66, 1.68, 3.2, 4.04, 5.02, 5.02, 5.0, 5.29, 5.64, 6.15, 5.2, 3.66, 2.39, 2.45, 2.45, 2.45, 2.54, 2.45, 9.91, 9.86, 9.57, 9.11, 8.17, 8.0, 8.0, 7.81, 7.08, 6.95, 6.95, 6.95, 9.2, 9.2, 10.0, 8.24, 9.2, 9.6, 9.2, 8.42, 7.41, 7.06, 7.15, 7.06, 7.35, 8.15, 6.95, 5.98, 7.27, 8.53, 7.24, 5.86, 5.86, 7.51, 8.16, 9.56, 9.57, 9.92, 10.79, 6.3, 2.4, 1.07, 1.11, 3.45, 4.8, 6.94, 7.12, 8.31, 8.06, 8.68, 7.38, 8.95, 8.84, 9.11, 8.99, 8.18, 8.31, 8.31, 8.95, 8.3, 5.93, 4.04, 4.75, 6.47, 8.12, 9.67, 9.8, 9.66, 10.65, 12.5, 13.89, 14.85, 15.76, 16.19, 16.03, 14.56, 12.27, 7.53, 4.25, 4.07, 5.09, 3.58, 4.38, 5.11, 6.0, 7.11, 7.36, 7.48, 7.59, 8.22, 7.63, 6.0, 4.0, 3.25, 2.54, 2.45, 2.45, 2.45, 10.04, 10.01, 9.57, 9.11, 8.21, 7.74, 7.58, 7.31, 7.31, 7.08, 7.08, 6.8, 8.93, 8.8, 9.2, 9.6, 9.6, 9.03, 8.42, 8.12, 7.9, 7.56, 6.91, 6.55, 7.2, 8.18, 7.81, 6.64, 7.56, 8.15, 7.59, 6.24, 6.5, 7.24, 8.93, 10.01, 11.33, 10.55, 10.16, 8.37, 3.52, 1.2, 1.11, 2.28, 4.6, 5.63, 6.9, 7.0, 8.96, 9.18, 10.18, 8.99, 8.18, 7.93, 7.36, 7.25, 7.38, 7.51, 7.51, 7.38, 5.55, 4.07, 4.95, 7.27, 9.09, 9.8, 10.83, 10.65, 11.14, 12.89, 14.16, 14.01, 15.52, 16.19, 15.96, 14.09, 8.56, 3.63, 3.2, 4.95, 7.04, 5.64, 5.81, 6.0, 6.67, 8.01, 8.79, 9.26, 8.94, 9.21, 8.49, 6.67, 4.55, 4.0, 3.25, 2.54, 2.45, 2.45, 10.04, 10.04, 9.57, 9.11, 8.64, 8.17, 7.58, 7.51, 7.31, 7.31, 7.31, 7.71, 7.71, 7.81, 9.36, 9.36, 9.2, 8.6, 8.73, 8.37, 8.18, 8.18, 8.18, 7.81, 7.44, 7.81, 7.81, 6.98, 7.81, 8.37, 8.73, 7.9, 6.3, 7.59, 9.66, 10.79, 11.99, 10.0, 10.55, 9.1, 5.76, 3.21, 1.6, 2.44, 4.83, 5.63, 5.8, 6.9, 7.91, 9.79, 10.47, 9.55, 8.25, 7.2, 7.45, 7.13, 6.08, 5.21, 4.4, 4.81, 5.72, 4.88, 5.51, 7.4, 9.67, 10.71, 11.47, 10.81, 11.16, 12.23, 12.56, 12.54, 14.53, 16.19, 14.93, 9.81, 3.72, 0.81, 2.96, 5.87, 7.91, 9.41, 7.38, 7.34, 7.54, 8.37, 9.17, 9.56, 9.56, 8.93, 7.36, 5.68, 4.21, 4.1, 3.25, 3.14, 2.54, 3.23, 10.04, 10.04, 9.57, 9.54, 8.64, 8.17, 8.0, 7.51, 7.51, 7.31, 7.71, 7.81, 8.22, 8.0, 9.66, 9.24, 9.55, 7.31, 7.51, 7.26, 8.56, 8.06, 7.53, 7.53, 8.22, 8.48, 8.0, 8.0, 8.0, 9.04, 10.46, 8.21, 7.15, 8.21, 8.95, 11.62, 13.44, 13.02, 10.63, 10.23, 8.38, 5.06, 2.44, 3.35, 4.4, 4.8, 4.81, 6.4, 7.45, 8.29, 8.74, 8.26, 7.33, 6.5, 6.46, 7.4, 6.72, 3.36, 0.89, 1.71, 4.91, 6.46, 6.64, 7.91, 9.67, 11.83, 12.42, 11.25, 9.65, 9.36, 9.81, 11.04, 13.84, 15.04, 11.98, 6.02, 0.78, 1.59, 4.14, 6.52, 8.56, 10.25, 10.15, 8.58, 8.29, 8.79, 9.56, 9.57, 8.93, 7.44, 6.62, 5.06, 4.06, 3.96, 4.1, 3.34, 3.34, 3.96, 10.14, 10.04, 9.57, 9.54, 9.11, 8.48, 8.0, 8.0, 7.51, 7.51, 7.81, 8.22, 8.3, 8.42, 8.0, 7.58, 7.51, 7.09, 7.26, 6.94, 6.16, 5.33, 4.44, 7.94, 8.41, 8.6, 9.03, 5.81, 7.95, 9.46, 10.41, 9.66, 9.13, 9.06, 10.14, 11.96, 13.23, 12.8, 11.37, 10.55, 9.3, 6.42, 3.32, 2.33, 3.3, 2.41, 2.48, 4.66, 6.1, 6.85, 5.56, 4.82, 4.12, 4.16, 5.04, 6.73, 9.41, 7.27, 1.76, -0.0, 3.18, 7.17, 8.07, 8.12, 9.79, 12.07, 13.61, 12.13, 8.12, 6.11, 6.06, 9.27, 11.72, 12.09, 8.06, 3.77, 2.39, 3.24, 5.15, 7.3, 9.92, 11.37, 11.48, 9.77, 9.43, 9.17, 9.21, 8.93, 7.52, 6.71, 5.86, 5.3, 4.58, 4.06, 4.21, 4.1, 4.1, 4.1, 10.14, 10.04, 9.57, 9.54, 9.11, 8.96, 8.48, 8.0, 7.58, 7.51, 8.0, 8.48, 8.48, 8.3, 7.81, 7.58, 7.51, 7.26, 7.26, 6.79, 6.47, 5.26, 4.47, 4.02, 4.02, 4.89, 5.7, 6.16, 6.16, 6.68, 9.8, 10.14, 10.14, 10.16, 11.14, 11.59, 12.42, 11.84, 10.25, 10.15, 9.3, 7.08, 4.0, 2.31, 1.09, -0.0, 1.08, 3.41, 4.65, 5.8, 4.24, 2.19, 0.73, 0.73, 2.25, 4.56, 9.44, 13.89, 8.03, 1.62, 2.45, 6.37, 8.2, 8.12, 8.07, 10.69, 12.53, 13.82, 9.98, 7.13, 5.9, 7.06, 8.72, 7.76, 6.11, 5.0, 5.79, 6.42, 7.2, 8.59, 9.78, 11.59, 11.7, 12.5, 10.65, 10.51, 9.26, 7.59, 7.15, 6.97, 6.71, 5.09, 4.4, 4.17, 4.06, 4.21, 4.21, 4.81, 10.14, 10.13, 9.57, 9.11, 9.11, 9.11, 8.48, 8.48, 8.0, 8.0, 8.0, 8.48, 8.48, 8.22, 7.81, 7.51, 7.51, 7.09, 7.21, 6.79, 6.79, 6.51, 5.34, 4.02, 3.54, 4.47, 5.36, 5.81, 6.26, 6.68, 7.97, 9.83, 11.18, 10.25, 10.7, 11.06, 10.62, 10.16, 9.54, 9.6, 9.3, 7.59, 4.66, 2.13, 1.11, -0.0, 0.8, 3.53, 5.64, 5.86, 4.65, 1.13, -0.0, -0.0, 2.16, 4.39, 6.8, 12.7, 14.94, 6.47, 3.33, 5.65, 7.14, 8.32, 7.57, 8.32, 9.18, 10.17, 13.11, 13.13, 9.77, 6.83, 5.37, 6.11, 7.13, 7.25, 8.29, 8.16, 9.66, 9.77, 10.75, 12.22, 12.43, 12.42, 11.77, 11.95, 9.96, 7.78, 6.71, 7.15, 6.79, 5.41, 4.4, 4.17, 3.76, 4.21, 4.21, 4.93, 10.14, 10.13, 9.68, 9.11, 9.11, 9.11, 8.64, 8.48, 8.0, 8.0, 8.48, 8.48, 8.3, 8.22, 7.81, 7.51, 7.51, 7.09, 7.26, 6.79, 6.79, 6.79, 6.51, 5.78, 4.92, 4.88, 5.24, 5.7, 6.04, 6.94, 7.69, 8.17, 11.11, 10.73, 10.66, 10.66, 10.66, 9.24, 10.18, 9.03, 8.68, 8.15, 6.01, 3.3, 1.09, -0.0, 1.18, 3.39, 5.64, 6.71, 4.54, 3.53, 2.42, 2.39, 3.3, 4.6, 6.97, 10.12, 13.53, 10.35, 4.85, 5.78, 6.93, 8.48, 8.2, 8.4, 8.32, 10.58, 13.96, 15.8, 13.28, 9.36, 6.7, 7.36, 9.4, 10.18, 10.05, 10.54, 11.38, 11.47, 11.9, 12.27, 12.64, 12.25, 11.44, 11.64, 9.89, 8.42, 7.44, 7.36, 6.57, 5.41, 5.0, 5.2, 5.06, 4.21, 4.93, 4.93, 10.14, 9.68, 9.68, 9.23, 9.11, 8.67, 8.64, 8.64, 8.48, 8.48, 8.48, 8.3, 8.22, 8.22, 7.81, 7.58, 7.51, 7.26, 7.26, 6.79, 6.79, 7.26, 7.26, 7.4, 7.13, 6.71, 6.61, 6.94, 7.21, 7.09, 7.51, 8.22, 8.0, 10.66, 10.28, 9.36, 10.14, 9.54, 10.18, 9.6, 8.43, 7.02, 6.3, 4.44, 2.17, 1.16, 1.22, 3.45, 6.98, 8.22, 7.24, 4.54, 4.54, 4.8, 4.66, 4.96, 6.3, 9.42, 11.63, 10.47, 7.36, 7.13, 8.23, 8.51, 8.51, 9.22, 8.95, 12.01, 13.91, 16.63, 14.0, 11.38, 10.01, 10.95, 12.23, 12.96, 12.72, 12.5, 12.89, 12.89, 12.47, 12.15, 11.6, 11.2, 10.04, 9.4, 9.17, 8.3, 8.42, 8.12, 6.84, 5.3, 5.1, 5.1, 4.32, 4.48, 5.68, 5.68, 10.14, 9.68, 9.68, 9.23, 9.23, 8.64, 8.64, 8.64, 8.48, 8.48, 8.48, 8.22, 8.22, 8.22, 7.81, 8.0, 7.58, 7.26, 6.6, 7.01, 7.09, 7.69, 7.87, 8.42, 8.03, 8.03, 7.97, 7.74, 7.58, 7.31, 7.31, 7.31, 7.51, 9.97, 8.49, 9.36, 9.54, 10.47, 10.05, 9.2, 8.54, 6.73, 6.95, 4.03, 3.3, 1.22, 2.39, 4.66, 7.81, 9.1, 7.81, 5.98, 4.8, 5.69, 6.24, 5.98, 7.59, 9.3, 10.23, 10.12, 9.21, 9.17, 9.66, 9.66, 10.04, 9.04, 10.01, 10.09, 12.01, 15.11, 17.3, 13.76, 12.42, 13.12, 14.77, 14.7, 15.44, 14.86, 13.87, 13.25, 12.62, 11.6, 10.96, 9.52, 9.4, 8.64, 8.53, 8.85, 8.12, 7.51, 6.62, 5.3, 5.2, 5.02, 4.93, 5.4, 5.99, 5.99, 10.22, 9.68, 9.24, 9.23, 8.79, 8.64, 8.64, 8.64, 8.48, 8.48, 8.22, 8.22, 8.22, 7.81, 7.81, 8.0, 7.09, 7.01, 6.8, 7.31, 7.58, 7.87, 7.97, 8.42, 8.47, 8.03, 7.4, 7.4, 7.26, 6.79, 6.3, 6.47, 6.51, 7.06, 7.15, 9.35, 9.24, 10.91, 10.05, 9.45, 7.81, 6.01, 5.72, 4.44, 3.25, 3.25, 3.45, 6.3, 9.1, 9.1, 6.95, 4.88, 5.1, 5.1, 5.98, 7.27, 8.15, 8.49, 9.42, 9.17, 10.23, 10.41, 10.55, 10.16, 10.62, 9.36, 9.36, 9.46, 11.16, 14.96, 18.79, 17.08, 15.5, 14.86, 14.88, 15.5, 16.49, 17.47, 15.82, 13.75, 11.83, 11.02, 10.04, 9.27, 9.26, 9.34, 9.34, 8.22, 7.64, 7.51, 7.12, 6.08, 5.2, 5.29, 5.8, 6.56, 6.62, 6.62, 10.22, 9.77, 9.24, 9.23, 8.79, 8.77, 8.64, 8.21, 8.21, 8.0, 8.0, 8.42, 8.22, 8.0, 8.0, 10.18, 7.09, 6.8, 7.31, 7.81, 8.17, 7.4, 6.97, 9.54, 9.54, 10.2, 6.23, 8.45, 8.45, 6.61, 7.06, 7.13, 7.58, 8.05, 8.03, 8.47, 8.87, 9.23, 10.41, 10.05, 8.05, 7.68, 6.98, 6.71, 5.64, 4.8, 4.88, 7.27, 9.1, 7.81, 5.98, 4.8, 4.8, 5.32, 6.5, 7.27, 7.9, 8.22, 8.85, 10.23, 10.41, 10.41, 10.94, 9.6, 9.9, 9.36, 9.03, 9.42, 10.55, 14.84, 17.43, 17.59, 17.99, 17.35, 16.31, 15.94, 16.46, 17.39, 17.13, 14.3, 10.63, 10.04, 10.04, 9.57, 10.66, 10.01, 10.04, 8.3, 7.36, 6.87, 7.38, 6.56, 5.06, 5.1, 6.65, 7.12, 6.7, 6.7, 10.22, 9.77, 9.32, 8.79, 8.77, 8.77, 8.21, 8.21, 8.17, 8.0, 8.0, 8.0, 8.42, 8.42, 8.06, 8.0, 8.0, 7.31, 9.36, 9.9, 9.75, 6.79, 6.6, 9.24, 9.9, 9.9, 9.66, 8.22, 8.51, 8.91, 9.21, 9.39, 9.54, 9.68, 9.68, 9.24, 9.24, 9.23, 9.23, 8.64, 8.51, 8.08, 7.27, 6.98, 5.7, 5.69, 5.98, 7.81, 8.15, 6.69, 4.8, 3.53, 4.8, 5.69, 5.9, 6.7, 8.53, 7.59, 9.0, 10.41, 10.55, 10.16, 10.16, 10.16, 8.82, 8.79, 8.73, 9.4, 11.26, 13.64, 15.77, 17.26, 17.89, 17.87, 17.27, 16.07, 15.65, 15.65, 14.21, 12.98, 11.92, 11.02, 10.63, 10.66, 10.66, 10.48, 9.84, 8.68, 7.59, 6.71, 6.56, 6.43, 5.6, 5.93, 7.28, 7.9, 7.51, 7.51, 10.22, 9.77, 9.23, 8.79, 8.77, 8.33, 8.21, 8.21, 8.17, 8.0, 8.0, 8.0, 8.48, 8.48, 8.48, 8.48, 8.0, 8.0, 8.0, 9.75, 9.9, 7.81, 8.0, 8.3, 8.79, 9.21, 9.7, 9.7, 9.7, 9.7, 9.86, 9.86, 10.04, 10.04, 10.01, 9.68, 9.24, 9.23, 9.23, 8.96, 8.68, 8.08, 7.3, 6.7, 5.95, 6.45, 6.69, 7.27, 6.98, 4.8, 3.39, 3.77, 4.8, 4.8, 5.92, 6.7, 7.78, 7.52, 9.66, 9.86, 9.86, 9.86, 9.48, 9.48, 8.38, 8.31, 8.64, 9.26, 11.28, 12.89, 14.49, 16.85, 17.25, 16.09, 15.12, 13.65, 11.42, 12.07, 12.27, 12.98, 13.11, 12.56, 12.15, 11.34, 11.5, 10.0, 9.05, 7.96, 7.52, 6.44, 6.7, 6.43, 7.01, 6.53, 7.36, 7.8, 7.44, 7.44, 10.22, 9.77, 9.23, 8.79, 8.77, 8.33, 8.21, 8.17, 8.17, 8.0, 8.0, 8.06, 8.48, 8.48, 8.48, 8.48, 8.48, 8.0, 8.0, 8.0, 8.48, 8.3, 8.72, 8.96, 9.11, 9.57, 9.57, 9.57, 9.68, 9.68, 9.68, 9.68, 9.68, 9.68, 9.68, 9.68, 9.32, 8.79, 8.79, 8.96, 8.68, 8.08, 7.3, 6.98, 6.63, 5.72, 6.98, 6.95, 5.98, 3.92, 3.53, 3.77, 4.8, 5.32, 4.8, 5.92, 7.36, 8.12, 8.82, 9.09, 8.42, 9.43, 8.79, 8.38, 8.31, 8.64, 8.22, 8.53, 9.06, 11.38, 13.23, 17.3, 17.66, 13.18, 6.64, 7.6, 8.46, 9.26, 10.32, 12.22, 14.05, 13.89, 13.19, 12.15, 10.63, 9.05, 8.02, 7.78, 8.09, 6.62, 6.53, 7.54, 8.01, 7.63, 8.16, 7.85, 7.64, 7.64, 10.22, 10.22, 9.77, 8.79, 8.77, 8.33, 8.21, 8.17, 8.17, 8.17, 8.0, 8.48, 8.48, 8.48, 8.48, 8.48, 8.48, 8.48, 8.06, 8.0, 8.48, 8.48, 8.64, 9.11, 9.23, 9.23, 9.23, 9.32, 9.32, 9.32, 9.32, 9.32, 9.32, 9.77, 9.77, 9.32, 9.32, 8.87, 8.79, 8.91, 8.28, 7.73, 7.27, 7.3, 7.3, 6.35, 6.98, 5.72, 4.88, 3.77, 3.39, 3.77, 4.6, 4.6, 4.8, 4.8, 6.84, 8.3, 8.85, 7.06, 7.76, 7.68, 7.97, 7.59, 8.31, 8.64, 8.22, 7.48, 8.12, 8.76, 11.06, 14.17, 16.71, 9.21, 6.8, 7.03, 9.08, 10.1, 11.23, 12.62, 13.83, 14.64, 13.91, 12.15, 10.04, 8.31, 7.36, 8.3, 8.45, 8.84, 7.28, 8.01, 8.79, 8.16, 8.22, 7.44, 6.71, 6.71, 9.77, 9.77, 9.32, 9.32, 8.33, 8.33, 8.17, 8.17, 8.17, 8.17, 8.17, 8.64, 8.48, 8.48, 8.48, 8.91, 8.96, 8.48, 8.48, 8.48, 8.48, 8.48, 8.64, 8.67, 8.79, 8.87, 8.87, 8.87, 8.87, 8.87, 9.37, 9.37, 9.37, 9.37, 9.37, 9.32, 9.32, 8.87, 8.79, 8.48, 8.15, 7.44, 7.55, 7.59, 7.59, 6.35, 6.71, 5.69, 4.8, 2.42, 2.42, 3.77, 3.61, 3.61, 3.61, 5.1, 5.9, 7.64, 8.83, 7.56, 6.32, 6.64, 7.59, 8.31, 8.31, 8.31, 7.78, 8.24, 7.78, 8.22, 9.76, 21.2, 22.77, 16.55, 13.2, 12.51, 12.75, 12.75, 12.92, 12.52, 13.41, 13.86, 12.79, 10.68, 8.64, 7.64, 8.01, 8.59, 9.24, 9.6, 8.95, 8.79, 9.17, 8.9, 7.9, 7.52, 6.71, 6.71, 9.82, 9.82, 9.32, 8.87, 8.77, 8.33, 8.17, 8.17, 8.17, 8.17, 8.21, 8.21, 8.64, 8.48, 8.48, 8.96, 8.96, 9.11, 8.64, 8.64, 8.64, 8.64, 8.64, 8.67, 8.79, 8.87, 8.87, 8.92, 8.92, 8.92, 8.92, 9.37, 9.37, 9.37, 9.37, 9.37, 8.87, 8.87, 8.87, 8.64, 8.0, 7.44, 7.51, 8.15, 7.59, 6.35, 6.35, 6.06, 4.71, 2.21, 1.18, 2.42, 2.49, 3.61, 3.87, 4.88, 5.1, 6.04, 7.85, 8.85, 8.22, 7.06, 7.68, 8.73, 8.31, 7.48, 7.36, 7.36, 8.53, 10.04, 13.01, 16.96, 22.25, 20.23, 17.91, 15.13, 12.88, 12.07, 12.92, 11.96, 12.33, 12.5, 10.18, 7.68, 7.78, 8.12, 9.17, 9.06, 9.24, 9.37, 10.75, 9.48, 9.2, 8.93, 7.22, 7.22, 6.79, 6.79, 9.37, 9.37, 9.32, 8.87, 8.33, 8.33, 8.33, 8.17, 8.17, 8.17, 8.21, 8.21, 8.64, 8.64, 8.48, 8.96, 9.11, 9.11, 9.11, 8.64, 8.64, 8.64, 8.64, 8.67, 9.23, 8.87, 8.87, 8.92, 8.92, 8.92, 8.92, 9.37, 9.37, 9.37, 9.37, 9.37, 8.92, 8.92, 8.87, 8.64, 8.0, 7.44, 7.51, 8.15, 7.3, 6.35, 6.35, 6.06, 5.1, 2.86, 1.11, 1.12, 1.18, 2.49, 3.61, 3.87, 5.21, 5.21, 5.98, 7.56, 8.53, 8.82, 7.76, 8.12, 8.02, 7.48, 7.36, 8.12, 9.66, 10.63, 12.3, 16.17, 17.55, 20.62, 21.02, 17.91, 13.35, 10.28, 9.79, 9.79, 9.83, 8.82, 7.69, 7.22, 8.16, 9.06, 9.06, 9.36, 9.8, 9.8, 10.43, 10.48, 9.53, 8.57, 7.9, 7.9, 7.27, 7.27, 9.37, 9.37, 8.87, 8.86, 8.33, 8.33, 8.33, 8.3, 8.17, 8.21, 8.21, 8.21, 8.64, 8.64, 8.64, 9.11, 9.11, 9.11, 9.11, 9.23, 8.79, 8.64, 8.67, 8.79, 9.23, 9.32, 8.87, 8.92, 8.92, 9.39, 9.39, 9.39, 9.39, 9.39, 9.39, 9.39, 8.94, 8.94, 8.47, 8.3, 7.48, 7.44, 7.55, 7.59, 6.98, 5.98, 6.08, 6.06, 5.36, 3.35, 1.75, 1.75, 1.14, 1.71, 2.7, 3.32, 5.21, 4.96, 4.5, 6.48, 9.16, 8.38, 9.46, 7.76, 7.27, 6.7, 7.78, 9.34, 10.66, 11.92, 13.01, 14.09, 15.56, 17.67, 19.65, 19.69, 15.76, 9.4, 7.37, 7.63, 8.4, 8.03, 8.6, 8.53, 9.53, 10.15, 10.43, 10.51, 10.22, 9.89, 9.85, 10.82, 10.58, 9.26, 8.27, 7.94, 7.96, 7.96, 8.92, 8.92, 8.86, 8.42, 8.33, 8.33, 8.33, 8.33, 8.33, 8.33, 8.21, 8.21, 8.64, 8.64, 8.67, 9.11, 9.11, 9.11, 9.23, 9.23, 9.23, 8.79, 8.79, 8.79, 8.79, 9.32, 9.32, 9.37, 9.37, 9.39, 9.39, 9.39, 9.39, 9.39, 9.39, 9.39, 8.94, 8.94, 8.47, 7.87, 7.48, 7.44, 7.55, 6.95, 5.72, 5.34, 5.72, 6.01, 5.09, 3.52, 2.83, 2.33, 1.69, 1.71, 1.73, 3.45, 4.0, 4.0, 4.5, 6.18, 7.76, 9.05, 8.79, 7.68, 7.13, 8.53, 9.4, 10.04, 10.96, 12.72, 13.92, 14.09, 13.76, 14.09, 16.7, 19.93, 19.0, 13.11, 9.03, 8.43, 9.43, 8.93, 9.58, 10.19, 10.19, 10.18, 11.17, 11.6, 10.58, 9.96, 9.96, 11.03, 11.25, 9.84, 9.57, 8.94, 8.32, 8.32, 8.86, 8.86, 8.42, 8.33, 8.33, 8.33, 8.33, 8.33, 8.33, 8.33, 8.33, 8.33, 8.64, 8.64, 8.67, 9.11, 9.11, 9.23, 9.24, 9.24, 9.23, 9.23, 8.79, 8.79, 8.79, 9.32, 9.32, 9.37, 9.37, 9.39, 9.39, 9.39, 9.39, 9.39, 9.39, 9.39, 8.94, 8.94, 8.47, 7.87, 7.08, 6.87, 6.95, 7.18, 5.52, 5.09, 4.83, 4.71, 4.69, 4.0, 3.35, 2.71, 2.37, 2.23, 2.26, 2.14, 3.8, 4.0, 4.26, 5.53, 7.06, 8.82, 8.42, 8.02, 7.9, 9.0, 10.04, 10.0, 10.18, 11.8, 13.65, 14.55, 13.76, 12.96, 15.2, 18.31, 18.5, 16.03, 13.11, 11.09, 10.85, 9.2, 10.02, 9.86, 11.18, 11.42, 11.75, 12.27, 11.66, 11.28, 11.04, 11.26, 11.6, 10.79, 10.15, 9.52, 8.88, 8.88, 8.42, 8.42, 8.42, 8.33, 8.33, 8.33, 8.33, 8.33, 8.33, 8.33, 8.33, 8.33, 8.77, 8.77, 8.77, 9.23, 9.23, 9.23, 9.24, 9.32, 9.32, 9.32, 9.32, 9.32, 9.32, 9.32, 9.32, 9.37, 9.37, 9.39, 9.39, 9.39, 9.39, 9.39, 9.39, 8.92, 8.92, 8.49, 8.03, 7.69, 6.95, 6.87, 6.92, 6.34, 5.72, 5.64, 5.06, 4.05, 4.71, 5.1, 4.05, 3.37, 2.89, 2.92, 2.96, 2.32, 2.36, 2.82, 4.68, 5.24, 6.79, 8.18, 8.42, 7.68, 8.38, 9.04, 10.04, 11.72, 9.36, 10.14, 11.36, 13.23, 14.84, 14.99, 15.18, 16.07, 16.07, 14.87, 14.42, 13.23, 11.61, 9.2, 10.13, 11.07, 11.99, 13.85, 13.19, 12.66, 12.4, 11.99, 11.72, 12.3, 12.14, 11.99, 10.8, 10.0, 9.2, 9.2, 8.77, 8.77, 8.33, 8.33, 8.33, 8.33, 8.33, 8.33, 8.33, 8.33, 8.33, 8.33, 8.33, 8.77, 8.77, 8.79, 9.23, 9.24, 9.32, 9.77, 9.32, 9.37, 9.32, 9.32, 9.32, 9.32, 8.87, 8.92, 8.92, 8.94, 8.94, 8.92, 8.92, 8.92, 8.92, 8.47, 8.47, 8.05, 7.52, 7.51, 6.95, 6.79, 6.92, 6.34, 5.72, 5.76, 5.76, 4.46, 5.1, 5.1, 4.46, 3.37, 3.37, 2.92, 2.96, 3.0, 3.04, 2.82, 3.49, 5.37, 6.11, 7.81, 8.06, 8.82, 8.82, 8.82, 9.42, 11.33, 11.33, 10.46, 9.24, 11.5, 14.3, 17.39, 17.72, 15.63, 13.86, 12.94, 13.01, 13.72, 12.4, 11.3, 10.96, 12.95, 13.99, 14.53, 14.42, 14.75, 13.56, 13.09, 12.77, 12.77, 12.77, 12.33, 11.45, 10.52, 9.74, 9.74, 8.77, 8.77, 8.77, 8.77, 8.33, 8.42, 8.42, 8.42, 8.42, 8.42, 8.42, 8.42, 8.33, 8.77, 8.77, 8.79, 9.23, 9.32, 9.32, 9.82, 9.82, 9.37, 9.37, 9.37, 9.32, 9.32, 8.87, 8.92, 11.14, 8.49, 8.49, 8.49, 8.49, 8.49, 8.49, 8.05, 7.6, 7.52, 7.26, 7.31, 6.7, 6.79, 6.92, 6.34, 5.72, 5.38, 5.38, 5.38, 5.08, 4.73, 4.05, 3.81, 3.6, 3.83, 3.84, 3.45, 3.47, 3.22, 3.22, 4.11, 6.55, 7.58, 8.8, 8.24, 8.95, 8.8, 8.72, 10.46, 11.44, 12.04, 9.9, 10.4, 13.43, 18.42, 20.86, 18.26, 12.96, 11.51, 12.09, 13.15, 14.01, 13.74, 14.14, 13.81, 14.9, 15.54, 15.36, 14.65, 15.12, 13.39, 12.94, 12.52, 12.52, 12.05, 11.23, 10.1, 9.45, 9.45, 8.86, 8.86, 8.86, 8.86, 8.86, 8.42, 8.42, 8.42, 8.42, 8.42, 8.42, 8.42, 8.42, 8.42, 8.86, 8.87, 9.32, 9.32, 9.37, 9.82, 9.82, 9.82, 9.37, 9.37, 9.37, 9.32, 8.92, 8.92, 8.92, 10.73, 8.05, 7.6, 8.05, 8.05, 8.05, 7.6, 7.58, 7.87, 7.69, 7.31, 6.7, 6.79, 6.92, 6.34, 6.34, 5.71, 5.08, 4.75, 4.75, 4.47, 4.05, 4.03, 4.05, 4.08, 3.84, 4.1, 4.12, 3.84, 3.83, 4.11, 5.01, 7.42, 8.54, 7.82, 8.4, 8.8, 8.72, 9.49, 11.03, 12.42, 10.96, 11.27, 12.27, 16.8, 22.86, 21.51, 15.31, 12.53, 12.92, 14.07, 14.77, 15.04, 15.22, 15.83, 15.02, 15.54, 15.6, 14.75, 15.2, 13.41, 12.94, 12.05, 12.05, 11.15, 10.52, 10.32, 9.52, 9.52, 8.87, 8.87, 8.86, 8.86, 8.86, 8.86, 8.42, 8.42, 8.42, 8.42, 8.42, 8.42, 8.42, 8.42, 8.86, 8.87, 9.37, 9.37, 9.37, 9.82, 9.83, 9.83, 9.39, 9.37, 9.37, 9.37, 8.92, 8.92, 8.94, 8.49, 8.49, 8.05, 8.05, 8.05, 8.05, 8.03, 8.03, 7.87, 7.26, 7.31, 7.34, 7.15, 6.92, 6.34, 6.34, 6.01, 5.1, 4.47, 4.47, 4.05, 4.05, 4.28, 4.46, 4.47, 4.75, 4.1, 4.12, 4.42, 4.12, 4.71, 7.44, 7.44, 7.81, 8.54, 7.82, 8.72, 9.13, 9.24, 10.6, 11.99, 11.5, 12.45, 13.19, 15.18, 19.97, 21.58, 17.89, 15.13, 14.47, 15.03, 15.05, 15.13, 15.13, 15.63, 15.63, 14.75, 15.2, 14.29, 14.68, 13.32, 12.3, 11.95, 10.73, 10.49, 10.68, 10.4, 10.48, 10.48, 8.87, 8.87, 8.87, 8.86, 8.86, 8.86, 8.86, 8.42, 8.42, 8.42, 8.42, 8.42, 8.42, 8.42, 8.92, 8.92, 9.37, 9.37, 9.37, 9.83, 9.83, 9.83, 9.39, 9.39, 9.37, 9.37, 8.92, 8.92, 8.49, 8.05, 8.05, 8.05, 8.05, 8.05, 7.6, 7.6, 7.58, 7.51, 7.26, 7.31, 7.48, 7.15, 6.92, 6.34, 6.32, 5.71, 5.1, 4.73, 4.08, 4.05, 3.81, 4.46, 4.46, 4.47, 4.75, 4.75, 4.45, 4.74, 4.43, 4.94, 5.01, 7.44, 7.44, 8.63, 9.04, 9.04, 8.72, 9.66, 10.18, 11.18, 11.45, 13.8, 14.99, 15.12, 17.72, 19.52, 19.51, 17.68, 15.78, 14.66, 13.84, 13.84, 13.86, 14.3, 14.75, 13.41, 13.4, 13.84, 12.05, 11.15, 10.7, 10.73, 10.6, 10.52, 10.94, 10.94, 11.04, 11.04, 8.87, 8.87, 8.87, 8.87, 8.86, 8.86, 8.86, 8.86, 8.86, 8.92, 8.47, 8.47, 8.47, 8.92, 8.92, 8.92, 9.37, 9.37, 9.39, 9.83, 9.83, 9.83, 9.39, 9.39, 9.37, 9.37, 8.92, 8.49, 8.49, 8.05, 8.05, 8.05, 8.05, 7.6, 7.6, 7.6, 7.13, 7.51, 7.26, 7.31, 7.48, 7.09, 6.64, 6.32, 6.01, 6.01, 5.71, 5.1, 4.08, 4.05, 4.28, 4.46, 4.73, 5.08, 4.47, 4.75, 4.74, 4.74, 4.71, 4.94, 5.21, 5.21, 8.63, 7.76, 8.72, 9.63, 9.06, 9.97, 10.45, 10.89, 12.42, 12.3, 15.9, 15.31, 16.36, 16.96, 18.39, 18.39, 16.96, 14.47, 12.79, 12.43, 12.94, 12.94, 12.94, 12.5, 12.04, 10.93, 10.25, 10.25, 10.45, 10.68, 10.85, 11.27, 11.03, 11.45, 11.21, 11.21, 8.87, 8.87, 8.87, 8.87, 8.87, 8.86, 8.86, 8.92, 8.92, 8.92, 8.92, 8.92, 8.92, 8.92, 8.92, 8.92, 9.39, 9.39, 9.39, 9.83, 9.83, 9.83, 9.39, 9.39, 9.39, 9.39, 8.94, 8.94, 8.49, 8.49, 8.05, 8.05, 7.6, 7.6, 7.6, 7.15, 7.13, 7.07, 7.26, 7.31, 7.23, 6.87, 6.34, 6.7, 5.44, 5.71, 5.71, 5.1, 4.05, 4.05, 4.46, 5.1, 5.38, 5.08, 5.06, 5.06, 5.01, 5.01, 4.94, 4.94, 5.21, 5.21, 8.0, 8.06, 8.72, 9.97, 9.06, 9.97, 9.97, 10.41, 11.11, 12.3, 15.38, 17.28, 15.75, 15.01, 16.66, 18.31, 17.44, 14.75, 12.92, 12.18, 12.33, 11.86, 11.71, 11.45, 10.94, 10.8, 11.2, 11.2, 11.5, 11.45, 11.45, 11.61, 11.36, 11.4, 11.4, 11.52, 8.87, 8.87, 8.87, 8.87, 8.92, 8.92, 8.92, 8.92, 8.92, 8.92, 8.92, 8.92, 8.92, 8.92, 8.92, 8.94, 8.94, 9.39, 9.39, 9.83, 9.83, 9.39, 9.39, 9.39, 9.39, 9.39, 9.39, 8.94, 8.49, 8.49, 8.05, 8.05, 7.6, 7.6, 7.6, 7.6, 7.13, 7.4, 7.09, 7.31, 7.61, 6.87, 5.72, 6.7, 5.72, 5.71, 5.71, 5.1, 4.46, 4.73, 4.73, 5.08, 5.08, 5.37, 5.06, 5.35, 5.01, 5.29, 4.94, 5.21, 5.21, 5.21, 8.0, 7.63, 8.56, 9.54, 9.97, 9.49, 9.97, 10.18, 9.9, 12.04, 14.42, 16.46, 17.19, 15.01, 15.18, 16.52, 15.95, 14.0, 12.18, 12.14, 11.95, 11.3, 11.47, 11.99, 12.08, 12.39, 12.29, 12.8, 12.58, 12.14, 11.84, 11.95, 11.51, 11.08, 11.08, 11.4, 8.92, 8.92, 8.92, 8.92, 8.92, 8.92, 8.92, 8.92, 8.92, 8.92, 8.94, 8.94, 8.94, 8.94, 8.94, 8.94, 8.94, 9.39, 9.39, 9.83, 9.39, 9.39, 9.39, 9.39, 9.39, 9.39, 9.39, 9.39, 8.94, 8.49, 8.49, 8.05, 7.6, 7.6, 7.6, 7.6, 7.51, 7.26, 7.51, 7.48, 7.61, 6.87, 5.71, 5.1, 6.42, 5.71, 5.71, 5.38, 5.1, 5.08, 5.08, 5.37, 5.37, 5.06, 5.35, 5.01, 5.29, 4.94, 5.21, 5.21, 5.21, 5.58, 5.6, 8.6, 9.03, 9.54, 8.99, 9.49, 9.66, 9.9, 9.9, 10.32, 13.02, 15.44, 17.43, 15.52, 14.84, 14.66, 14.22, 12.33, 11.23, 11.52, 11.72, 11.88, 12.13, 13.07, 13.33, 13.57, 13.49, 13.21, 12.86, 12.42, 12.49, 12.04, 11.59, 11.59, 10.26, 11.08, 8.92, 8.92, 8.92, 8.92, 8.92, 8.92, 8.92, 8.92, 8.94, 8.94, 8.94, 8.94, 8.94, 8.94, 8.94, 8.94, 9.39, 9.39, 9.39, 9.39, 9.39, 9.39, 9.39, 9.39, 9.39, 9.39, 9.39, 9.39, 8.94, 8.94, 8.49, 8.05, 7.6, 7.6, 7.6, 7.58, 7.4, 7.26, 7.51, 7.71, 7.23, 7.15, 5.71, 5.1, 5.08, 6.53, 5.71, 5.71, 5.69, 5.08, 5.37, 5.06, 5.59, 5.59, 5.59, 5.29, 5.29, 5.21, 5.21, 5.21, 5.21, 5.21, 8.0, 7.6, 8.22, 8.63, 8.56, 9.63, 8.72, 9.36, 9.9, 10.32, 11.99, 13.44, 15.02, 17.42, 16.31, 15.52, 13.91, 12.3, 11.3, 11.72, 12.22, 12.65, 13.15, 13.64, 14.27, 14.11, 13.77, 13.32, 13.39, 12.96, 12.52, 12.07, 11.62, 10.73, 9.39, 9.39, 8.92, 8.92, 8.92, 8.92, 8.92, 8.92, 8.94, 8.94, 8.94, 8.94, 8.94, 8.94, 8.94, 8.94, 8.94, 8.94, 9.39, 9.39, 9.39, 9.37, 9.39, 9.39, 9.39, 9.39, 9.39, 9.39, 9.39, 9.39, 9.39, 8.94, 8.49, 8.05, 7.6, 7.6, 7.6, 7.13, 7.4, 7.26, 7.51, 7.71, 7.48, 6.79, 5.69, 5.38, 5.08, 5.08, 5.69, 5.69, 5.98, 5.65, 5.93, 5.59, 5.59, 5.59, 5.86, 5.49, 4.94, 5.21, 5.21, 5.21, 5.47, 5.47, 5.47, 8.0, 8.0, 8.63, 8.63, 9.04, 8.4, 9.36, 9.9, 10.18, 12.27, 11.61, 13.99, 16.02, 17.42, 18.63, 17.03, 15.43, 13.74, 13.64, 13.35, 13.09, 13.09, 14.09, 14.22, 14.22, 13.84, 13.86, 13.41, 12.96, 12.52, 12.04, 9.39, 8.05, 8.05, 8.05, 8.92, 8.92, 8.92, 8.92, 8.92, 8.94, 8.94, 8.94, 8.94, 8.94, 8.94, 8.94, 8.94, 8.94, 8.94, 8.94, 9.39, 9.39, 9.37, 9.37, 9.39, 9.39, 9.39, 9.39, 9.39, 9.39, 9.39, 9.39, 9.39, 8.94, 8.49, 8.05, 8.05, 7.6, 7.6, 7.13, 7.4, 7.69, 7.58, 7.31, 7.08, 6.23, 5.69, 5.69, 5.08, 5.37, 5.65, 5.65, 5.65, 5.65, 5.93, 5.59, 5.86, 5.86, 5.86, 5.49, 5.21, 5.21, 5.21, 5.47, 5.47, 5.6, 5.47, 8.0, 7.6, 8.0, 8.63, 9.04, 8.4, 8.95, 9.66, 9.97, 10.45, 11.8, 12.58, 14.15, 16.31, 18.05, 18.09, 17.7, 17.08, 15.72, 13.83, 12.77, 12.43, 12.94, 13.84, 13.86, 13.86, 13.86, 13.39, 12.42, 11.51, 8.9, 7.6, 6.71, 6.71, 6.71, 8.92, 8.92, 8.92, 8.92, 8.94, 8.94, 8.94, 8.94, 8.94, 8.94, 8.94, 8.94, 8.94, 8.94, 8.94, 9.39, 9.39, 9.37, 9.37, 9.37, 9.37, 9.39, 9.39, 9.39, 9.39, 9.39, 9.39, 9.39, 9.39, 8.94, 8.94, 8.49, 8.05, 7.6, 7.6, 7.58, 7.4, 7.74, 7.58, 7.31, 6.95, 6.51, 5.98, 5.65, 5.65, 5.65, 5.65, 5.65, 5.93, 5.93, 5.59, 5.86, 5.86, 5.86, 5.49, 5.58, 5.21, 5.21, 5.47, 5.47, 5.47, 5.6, 5.6, 5.47, 8.0, 8.0, 8.63, 8.56, 8.72, 9.06, 10.41, 9.68, 10.6, 11.8, 12.53, 13.23, 14.58, 16.31, 17.03, 17.1, 19.09, 19.04, 15.96, 12.66, 11.53, 12.05, 12.96, 13.86, 13.86, 12.94, 12.47, 8.33, 7.54, 6.64, 6.26, 6.26, 6.26, 6.26, 8.92, 8.92, 8.92, 8.94, 8.94, 8.94, 8.94, 8.94, 8.94, 8.94, 8.94, 8.94, 8.94, 8.94, 9.39, 9.39, 9.37, 9.37, 9.37, 9.37, 9.37, 9.39, 9.39, 9.39, 9.37, 9.37, 9.39, 9.39, 9.39, 9.39, 8.94, 8.49, 8.05, 7.6, 7.6, 7.58, 7.87, 8.3, 7.74, 7.31, 6.56, 6.15, 5.65, 5.65, 5.65, 5.65, 5.65, 5.93, 5.93, 5.59, 5.86, 5.86, 5.86, 5.86, 5.49, 5.58, 5.21, 5.21, 5.47, 5.47, 5.47, 5.6, 5.47, 5.47, 5.6, 8.6, 8.6, 8.33, 9.24, 9.68, 9.7, 10.14, 10.6, 11.36, 12.09, 12.72, 13.91, 15.1, 15.35, 15.43, 17.1, 20.67, 18.95, 14.11, 11.71, 11.98, 12.52, 13.41, 12.49, 11.11, 7.15, 5.81, 5.73, 5.81, 5.81, 5.81, 5.81, 5.81, 8.94, 8.94, 8.94, 8.94, 8.94, 8.94, 8.94, 8.94, 8.94, 8.94, 8.94, 8.94, 8.94, 8.94, 9.37, 9.37, 9.37, 9.32, 9.32, 9.37, 8.92, 9.37, 9.37, 9.37, 9.37, 9.37, 9.37, 9.37, 9.39, 9.39, 8.94, 8.94, 8.49, 8.05, 7.6, 8.03, 8.42, 8.3, 7.51, 6.8, 6.56, 6.15, 6.15, 5.65, 5.65, 5.65, 5.93, 5.93, 5.59, 5.86, 5.86, 6.03, 6.03, 6.13, 5.75, 5.75, 5.21, 5.21, 5.47, 5.08, 5.08, 5.31, 5.31, 5.08, 5.08, 8.48, 8.85, 8.85, 9.29, 9.21, 9.68, 10.14, 10.45, 11.36, 11.61, 12.53, 13.23, 13.91, 14.47, 14.16, 15.43, 19.02, 20.62, 17.04, 13.42, 11.98, 11.62, 10.73, 8.94, 4.47, 4.92, 5.36, 5.36, 5.36, 5.36, 5.81, 5.81, 5.81, 8.94, 8.94, 8.94, 8.94, 8.94, 8.94, 8.94, 8.94, 8.94, 8.94, 8.94, 8.94, 8.92, 8.92, 9.37, 9.37, 9.32, 9.32, 9.32, 8.87, 8.92, 9.37, 9.37, 9.37, 9.37, 9.37, 9.37, 9.37, 9.37, 9.39, 8.94, 8.94, 8.49, 8.05, 8.05, 8.47, 8.42, 8.3, 7.51, 6.8, 6.41, 6.15, 6.15, 5.93, 5.93, 5.93, 6.15, 6.15, 6.03, 6.03, 6.03, 6.03, 6.28, 6.13, 5.75, 5.37, 5.21, 5.47, 5.08, 5.08, 5.31, 5.31, 5.31, 4.9, 4.9, 8.06, 8.6, 8.6, 9.03, 8.99, 9.49, 9.97, 10.45, 11.33, 11.36, 12.04, 12.53, 13.23, 13.52, 13.19, 14.71, 16.95, 19.07, 18.4, 15.34, 11.52, 9.26, 7.11, 3.58, 3.58, 4.92, 5.36, 4.92, 4.92, 5.26, 5.73, 5.73, 5.73, 8.94, 8.94, 8.94, 8.94, 8.94, 8.94, 8.94, 8.94, 8.92, 8.92, 8.92, 8.92, 8.92, 8.92, 9.37, 9.32, 9.32, 9.32, 8.87, 8.87, 8.92, 8.92, 9.37, 9.37, 9.37, 9.37, 9.37, 9.37, 9.37, 9.37, 8.92, 8.92, 8.49, 8.05, 8.49, 8.47, 8.42, 7.74, 7.09, 6.8, 6.41, 6.15, 6.15, 6.15, 5.93, 6.15, 6.15, 6.41, 6.03, 6.03, 6.03, 6.28, 6.28, 5.89, 5.75, 5.37, 5.47, 5.47, 5.08, 5.08, 5.31, 5.31, 4.9, 4.9, 5.09, 7.12, 7.63, 8.56, 8.56, 9.06, 9.68, 9.8, 10.6, 11.05, 11.36, 11.8, 12.09, 12.3, 12.98, 13.11, 13.75, 14.39, 16.1, 18.68, 16.65, 11.88, 5.2, 4.0, 3.9, 4.02, 4.02, 4.47, 4.47, 4.34, 4.82, 5.26, 5.26, 5.26, 8.94, 8.94, 8.94, 8.94, 8.94, 8.92, 8.92, 8.92, 8.92, 8.92, 8.92, 8.92, 8.92, 8.92, 9.32, 9.32, 9.32, 9.23, 8.87, 8.86, 8.47, 8.92, 8.92, 9.37, 9.37, 9.37, 9.37, 9.37, 9.37, 9.37, 8.92, 8.47, 8.05, 8.05, 8.47, 8.87, 8.33, 7.74, 7.01, 6.8, 6.41, 6.15, 6.15, 6.15, 6.15, 6.15, 6.41, 6.41, 6.03, 6.03, 6.28, 6.28, 6.28, 5.75, 5.75, 5.6, 5.47, 5.08, 5.08, 5.31, 5.31, 4.9, 4.9, 5.09, 4.6, 6.88, 7.12, 8.06, 8.56, 8.99, 9.24, 9.68, 9.8, 10.7, 11.05, 11.36, 11.61, 11.79, 12.04, 12.56, 13.11, 13.19, 14.22, 16.95, 18.2, 8.55, 6.0, 4.66, 4.38, 4.38, 4.02, 3.58, 3.39, 4.34, 4.77, 4.82, 4.82, 4.82, 8.94, 8.94, 8.92, 8.92, 8.92, 8.92, 8.92, 8.92, 8.47, 8.47, 8.47, 8.92, 8.87, 8.87, 9.32, 9.32, 9.23, 9.23, 8.86, 8.47, 8.47, 8.92, 8.92, 8.92, 8.92, 8.92, 9.37, 9.37, 9.37, 8.92, 8.92, 8.47, 8.05, 8.49, 8.92, 8.87, 8.33, 7.69, 6.8, 6.8, 6.41, 6.15, 6.15, 6.15, 6.15, 6.41, 6.41, 6.41, 6.03, 6.28, 6.28, 6.28, 6.28, 6.0, 5.6, 5.6, 5.47, 5.08, 5.31, 5.31, 4.9, 5.09, 5.09, 5.09, 4.6, 5.24, 6.94, 7.63, 8.06, 8.3, 8.72, 9.49, 9.24, 9.24, 10.69, 10.89, 11.11, 11.27, 11.5, 12.04, 12.45, 12.45, 13.39, 16.76, 13.83, 9.6, 7.71, 5.75, 3.95, 4.0, 4.0, 3.6, 4.34, 4.77, 4.77, 4.4, 4.4, 4.4, 8.92, 8.92, 8.92, 8.47, 8.47, 8.47, 8.47, 8.47, 8.47, 8.47, 8.47, 8.42, 8.86, 8.87, 9.32, 9.23, 9.23, 8.79, 8.42, 8.47, 8.47, 8.47, 8.92, 8.87, 8.87, 8.92, 8.92, 9.37, 9.37, 8.92, 8.47, 8.47, 8.49, 8.94, 8.92, 8.87, 8.17, 7.51, 7.31, 6.56, 6.56, 6.15, 6.15, 6.15, 6.41, 6.41, 6.41, 6.41, 6.28, 6.28, 6.28, 6.28, 6.1, 6.0, 5.6, 5.6, 5.08, 5.31, 5.31, 5.31, 4.9, 5.09, 5.09, 5.09, 4.8, 5.24, 6.64, 6.94, 7.63, 8.48, 8.3, 8.72, 9.24, 8.99, 9.24, 9.66, 9.9, 10.85, 11.27, 11.37, 11.79, 12.3, 13.23, 18.5, 14.0, 10.05, 8.01, 5.36, 3.58, 3.39, 3.6, 4.0, 4.4, 4.98, 5.4, 4.8, 4.8, 4.8, 8.47, 8.47, 8.47, 8.47, 8.47, 8.47, 8.47, 8.47, 8.47, 8.47, 8.42, 8.42, 8.86, 8.87, 9.23, 9.23, 9.23, 8.77, 8.42, 8.03, 8.03, 8.47, 8.92, 8.86, 8.87, 8.87, 8.92, 9.37, 9.32, 8.87, 8.47, 8.47, 8.49, 8.94, 8.87, 8.77, 8.17, 7.51, 7.31, 6.95, 6.56, 6.41, 6.15, 6.15, 6.41, 6.41, 6.41, 6.67, 6.28, 6.28, 6.28, 6.51, 6.0, 6.0, 5.6, 5.6, 5.31, 5.31, 5.31, 4.9, 5.09, 5.09, 5.09, 4.8, 4.8, 5.24, 5.24, 5.67, 7.37, 8.29, 8.77, 9.21, 9.06, 9.24, 8.72, 8.8, 9.36, 10.32, 10.43, 10.68, 10.85, 11.79, 16.27, 18.11, 13.83, 9.72, 6.71, 4.0, 2.4, 2.68, 3.39, 3.6, 4.4, 5.4, 4.98, 5.4, 5.4, 5.4, 8.47, 8.47, 8.03, 8.03, 8.03, 8.03, 8.03, 8.03, 8.03, 8.47, 8.42, 8.42, 8.86, 8.86, 9.23, 9.23, 9.23, 8.77, 7.97, 8.03, 8.03, 8.47, 8.47, 8.42, 8.86, 8.87, 8.87, 9.32, 9.32, 8.87, 8.47, 8.47, 8.94, 8.92, 8.87, 8.77, 8.17, 7.51, 7.31, 7.2, 6.56, 6.41, 6.41, 6.41, 6.41, 6.41, 6.8, 6.67, 6.28, 6.28, 6.28, 6.1, 6.0, 5.6, 5.81, 5.81, 5.31, 5.31, 5.31, 5.09, 5.09, 5.09, 4.8, 4.8, 4.8, 4.8, 5.33, 5.33, 7.1, 8.0, 8.45, 8.77, 9.24, 9.49, 9.06, 9.06, 8.95, 9.75, 10.6, 10.6, 10.68, 11.27, 14.58, 17.38, 15.1, 9.49, 5.81, 3.82, 2.68, 2.68, 2.97, 3.39, 3.72, 4.4, 5.4, 4.98, 4.98, 4.98, 8.03, 8.03, 8.03, 8.03, 7.58, 8.03, 8.03, 8.03, 8.03, 7.97, 8.42, 8.42, 8.42, 8.77, 8.79, 9.23, 9.11, 8.33, 7.97, 7.58, 8.03, 8.03, 8.47, 8.42, 8.42, 8.87, 8.87, 9.32, 8.87, 8.87, 8.47, 8.49, 8.94, 8.92, 8.87, 8.33, 7.74, 7.51, 6.9, 6.8, 6.56, 6.41, 6.41, 6.41, 6.41, 6.56, 6.8, 6.8, 6.28, 6.28, 6.51, 6.1, 6.0, 5.81, 5.81, 5.4, 5.31, 5.31, 5.09, 5.09, 5.09, 5.24, 4.8, 4.8, 4.8, 4.89, 4.89, 4.88, 5.33, 8.0, 8.45, 8.9, 8.9, 9.24, 9.06, 9.24, 9.24, 9.97, 10.41, 10.41, 10.18, 11.79, 13.39, 16.71, 17.13, 11.61, 6.66, 5.29, 4.66, 4.8, 4.22, 4.0, 3.6, 4.0, 4.4, 4.8, 4.8, 4.8, 8.03, 8.03, 8.03, 7.58, 7.58, 7.58, 8.03, 8.03, 8.03, 7.97, 8.42, 8.42, 8.33, 8.77, 8.79, 9.11, 8.64, 8.3, 7.52, 7.58, 7.58, 8.03, 8.03, 8.42, 8.42, 8.87, 8.87, 9.32, 8.87, 8.87, 8.47, 8.94, 8.94, 8.92, 8.86, 8.33, 7.74, 7.51, 7.31, 6.8, 6.56, 6.56, 6.41, 6.41, 6.56, 6.8, 6.8, 6.8, 6.28, 6.51, 6.51, 6.1, 5.81, 5.81, 5.81, 5.4, 5.57, 5.51, 5.09, 5.09, 5.24, 4.8, 4.8, 4.77, 4.88, 4.89, 4.88, 4.88, 4.92, 7.6, 8.05, 8.45, 8.33, 8.77, 8.99, 9.24, 9.35, 9.79, 10.14, 10.14, 10.68, 11.61, 12.53, 15.56, 18.31, 15.31, 9.58, 7.89, 7.6, 8.0, 7.89, 6.94, 5.75, 4.8, 3.72, 4.09, 4.09, 4.09, 8.05, 8.05, 8.05, 8.05, 8.05, 8.03, 8.03, 8.03, 8.03, 7.97, 8.42, 8.33, 8.33, 8.77, 8.67, 9.11, 8.64, 7.87, 7.58, 7.58, 7.58, 8.03, 7.97, 8.42, 8.42, 8.87, 9.32, 9.32, 9.32, 8.87, 8.92, 8.94, 8.94, 8.86, 8.33, 8.3, 7.74, 7.51, 7.51, 6.8, 6.8, 6.56, 6.56, 6.56, 6.8, 6.8, 6.8, 6.8, 6.51, 6.51, 6.1, 6.3, 5.81, 5.81, 5.81, 5.57, 5.57, 5.51, 5.09, 5.24, 5.24, 4.8, 4.8, 4.88, 4.88, 4.88, 4.88, 4.47, 4.92, 7.15, 7.55, 8.0, 8.29, 8.33, 8.77, 8.77, 9.21, 9.24, 9.79, 9.97, 10.45, 11.36, 12.74, 15.12, 18.16, 16.36, 12.27, 9.4, 9.6, 10.01, 9.6, 9.4, 8.4, 7.12, 4.98, 3.93, 3.93, 3.93, 8.05, 8.05, 8.05, 8.05, 8.05, 8.03, 8.03, 8.03, 8.03, 8.42, 8.42, 8.33, 8.33, 8.77, 8.67, 8.67, 8.33, 7.52, 7.13, 7.13, 7.58, 7.58, 7.97, 7.97, 8.42, 8.79, 9.23, 9.32, 9.32, 8.87, 8.92, 8.94, 8.92, 8.42, 8.33, 8.3, 7.74, 7.51, 7.51, 6.8, 6.8, 6.8, 6.8, 6.8, 6.8, 6.8, 6.8, 6.6, 6.51, 6.51, 6.1, 6.3, 5.81, 5.81, 5.99, 5.57, 5.57, 5.09, 5.24, 5.24, 5.24, 4.8, 4.89, 4.89, 4.88, 4.88, 4.92, 4.47, 4.92, 5.36, 5.81, 8.0, 8.0, 8.29, 8.33, 8.77, 9.24, 9.24, 9.68, 10.14, 10.6, 11.51, 12.94, 15.18, 17.36, 16.36, 12.74, 9.83, 9.83, 9.83, 9.83, 10.25, 9.6, 9.24, 7.76, 6.16, 6.16, 6.16, 8.05, 8.05, 8.05, 8.05, 8.05, 8.03, 8.03, 8.03, 8.42, 8.42, 8.42, 8.33, 8.77, 8.77, 8.67, 8.64, 8.3, 7.51, 7.13, 7.13, 7.58, 7.51, 7.97, 7.97, 8.77, 8.79, 9.23, 9.32, 9.32, 8.87, 8.92, 8.49, 8.47, 8.42, 8.33, 7.87, 7.74, 7.51, 7.51, 6.8, 6.8, 6.8, 6.8, 6.8, 6.8, 7.01, 7.01, 6.6, 6.6, 6.51, 6.3, 6.3, 5.81, 5.99, 5.57, 5.57, 5.57, 5.26, 5.24, 5.24, 5.24, 4.89, 4.89, 4.89, 4.89, 4.92, 4.92, 4.92, 4.92, 4.92, 5.36, 8.05, 8.0, 8.85, 8.0, 8.77, 9.35, 9.35, 9.35, 9.8, 10.6, 11.59, 12.49, 14.73, 16.91, 16.22, 13.01, 10.68, 9.83, 10.02, 9.83, 9.83, 10.01, 9.74, 9.74, 8.67, 8.67, 8.67, 8.05, 8.05, 8.05, 8.05, 8.05, 8.03, 8.03, 8.47, 8.42, 8.42, 8.33, 8.33, 8.77, 8.64, 8.64, 8.64, 7.87, 7.51, 7.13, 7.13, 7.58, 7.51, 7.97, 7.97, 8.77, 8.79, 9.23, 9.32, 8.87, 8.92, 8.94, 8.49, 8.47, 8.42, 8.3, 7.87, 7.74, 7.69, 7.09, 7.01, 6.8, 6.8, 6.8, 7.01, 7.01, 7.01, 6.6, 6.6, 6.6, 6.72, 6.3, 5.88, 5.88, 5.99, 5.57, 5.57, 5.7, 5.7, 5.24, 5.24, 5.33, 5.33, 4.89, 4.89, 4.89, 4.92, 4.92, 4.92, 4.92, 4.92, 5.33, 5.81, 6.26, 8.94, 8.05, 8.49, 8.94, 9.35, 9.39, 9.83, 10.28, 11.62, 12.49, 13.83, 15.56, 15.75, 13.72, 11.61, 10.18, 10.18, 10.18, 10.18, 10.01, 9.86, 10.27, 10.32, 10.32, 10.32, 8.05, 8.05, 8.05, 8.05, 8.05, 8.03, 8.03, 8.47, 8.42, 8.42, 8.33, 8.33, 8.77, 8.64, 8.64, 8.64, 7.87, 7.51, 7.13, 7.13, 7.58, 7.51, 7.97, 7.97, 8.77, 8.79, 9.23, 9.32, 8.87, 8.92, 8.94, 8.49, 8.47, 8.42, 8.3, 7.87, 7.74, 7.69, 7.09, 7.01, 6.8, 6.8, 6.8, 7.01, 7.01, 7.01, 6.6, 6.6, 6.6, 6.72, 6.3, 5.88, 5.88, 5.99, 5.57, 5.57, 5.7, 5.7, 5.24, 5.24, 5.33, 5.33, 4.89, 4.89, 4.89, 4.92, 4.92, 4.92, 4.92, 4.92, 5.33, 5.81, 6.26, 8.94, 8.05, 8.49, 9.39, 9.35, 9.39, 9.83, 10.28, 11.18, 12.07, 12.94, 14.22, 14.84, 14.15, 12.3, 11.37, 10.68, 10.68, 10.43, 10.43, 10.43, 10.43, 10.68, 10.68, 10.68]}, {"header": {"dx": 0.06612293990616946, "dy": 0.0552356325346848, "nx": 98, "ny": 59, "la1": 35.046912555036876, "la2": 31.78801023549047, "lo1": -121.43107172385933, "lo2": -114.95102361305473, "refTime": "2026042122", "parameterCategory": 1, "parameterNumber": 3}, "data": [3.61, 3.94, 4.16, 4.16, 4.63, 4.63, 5.06, 5.06, 5.46, 5.72, 6.04, 5.72, 6.57, 6.45, 5.86, 5.86, 6.08, 6.08, 6.3, 6.3, 5.8, 5.8, 5.72, 5.51, 4.8, 5.76, 6.84, 7.51, 8.3, 7.51, 6.84, 5.46, 1.98, 0.0, -2.24, -2.53, -2.98, -3.2, -3.13, -2.68, -2.4, -2.76, -2.49, 2.26, 8.15, 11.83, 12.27, 11.66, 11.28, 10.9, 11.54, 11.76, 11.59, 11.19, 10.59, 10.86, 10.47, 10.05, 9.8, 10.43, 11.29, 10.83, 10.65, 11.25, 12.86, 14.16, 14.46, 13.88, 13.85, 13.04, 12.54, 11.08, 9.67, 8.25, 7.27, 6.31, 5.72, 4.37, 1.62, 1.68, 8.99, 12.07, 12.04, 11.59, 11.62, 11.08, 11.36, 11.51, 11.59, 11.59, 11.59, 11.51, 11.8, 11.61, 11.79, 11.87, 12.53, 12.74, 3.42, 3.45, 3.97, 3.97, 3.97, 4.63, 4.63, 5.08, 5.34, 5.72, 5.72, 7.48, 6.57, 6.2, 6.08, 5.86, 5.63, 6.08, 6.08, 5.51, 6.9, 6.67, 6.7, 5.92, 5.64, 6.31, 7.64, 8.01, 8.3, 8.01, 8.42, 8.53, 7.36, 4.92, 1.84, -1.27, -3.58, -3.39, -2.8, -2.24, -2.21, -1.3, 1.14, 8.05, 11.83, 12.86, 11.66, 10.66, 10.28, 10.58, 11.2, 11.06, 10.54, 10.23, 10.08, 9.67, 9.8, 9.8, 10.43, 11.29, 11.29, 10.65, 10.84, 11.66, 13.35, 14.39, 14.46, 13.88, 13.12, 12.23, 11.37, 10.05, 8.86, 7.4, 6.42, 5.72, 5.67, 4.37, 1.62, 1.68, 8.99, 12.07, 12.04, 11.59, 11.62, 11.08, 11.36, 11.51, 11.59, 11.59, 11.59, 11.51, 11.8, 11.61, 11.79, 11.87, 12.53, 12.74, 3.42, 3.45, 3.3, 3.49, 3.97, 3.97, 4.42, 4.66, 5.09, 5.36, 5.1, 5.72, 6.57, 5.86, 5.3, 5.2, 4.87, 4.87, 5.2, 6.0, 5.72, 5.6, 6.7, 6.97, 7.95, 7.82, 8.42, 8.01, 7.64, 8.53, 9.62, 10.98, 11.25, 11.03, 6.15, 2.83, 0.0, -1.9, -2.24, 0.0, 0.0, 2.29, 7.67, 11.5, 12.23, 11.28, 10.29, 10.29, 10.28, 10.58, 10.43, 10.34, 9.49, 9.39, 9.42, 9.54, 9.92, 10.43, 11.29, 11.7, 11.38, 10.75, 11.28, 12.79, 14.47, 14.39, 14.49, 13.85, 12.72, 11.48, 10.32, 8.99, 8.16, 7.32, 6.54, 5.67, 4.81, 4.07, 1.51, 2.59, 9.75, 13.41, 13.41, 12.07, 11.18, 10.7, 10.18, 10.7, 11.18, 10.73, 10.73, 10.7, 11.05, 11.8, 12.04, 12.04, 12.09, 12.71, 3.42, 3.45, 3.3, 3.49, 3.49, 3.97, 4.2, 4.44, 4.69, 5.1, 5.1, 5.1, 5.76, 5.41, 5.86, 4.87, 4.68, 4.3, 4.68, 5.06, 5.72, 5.86, 5.92, 7.08, 8.12, 9.48, 8.42, 8.12, 7.9, 8.73, 10.04, 11.28, 12.27, 12.46, 10.69, 8.53, 8.22, 6.58, 3.72, 2.53, 3.63, 6.44, 10.15, 11.2, 10.66, 10.04, 9.67, 9.66, 9.62, 9.89, 9.43, 9.6, 9.6, 9.49, 9.77, 9.77, 10.54, 11.7, 12.09, 11.38, 10.65, 10.51, 11.88, 14.05, 14.71, 14.79, 14.26, 13.41, 13.0, 11.88, 11.37, 9.54, 8.29, 6.6, 5.99, 4.91, 4.04, 3.36, 1.61, 2.59, 9.83, 14.28, 14.28, 12.94, 11.59, 11.14, 11.14, 10.7, 10.73, 10.28, 9.83, 10.28, 11.14, 11.8, 11.61, 12.04, 12.27, 12.71, 3.42, 3.42, 3.45, 3.49, 3.32, 3.52, 4.0, 4.44, 4.45, 4.71, 4.46, 5.1, 5.76, 5.14, 5.0, 4.17, 4.68, 4.3, 4.13, 5.0, 5.86, 7.24, 6.97, 8.22, 7.18, 8.53, 8.53, 8.85, 10.01, 9.43, 10.04, 10.04, 10.66, 10.58, 11.52, 11.17, 11.03, 10.47, 8.12, 6.64, 6.79, 7.44, 9.6, 10.63, 10.04, 9.67, 9.04, 8.65, 8.6, 8.85, 9.06, 9.7, 9.89, 9.89, 10.65, 10.65, 11.79, 12.16, 12.16, 11.79, 10.84, 11.28, 13.19, 15.0, 15.35, 14.85, 13.89, 13.88, 14.15, 13.67, 13.17, 12.13, 10.15, 8.29, 5.73, 4.31, 3.25, 2.39, 0.83, 2.35, 9.83, 14.28, 14.22, 13.18, 12.27, 11.51, 11.05, 10.7, 10.25, 9.35, 9.79, 10.73, 11.62, 11.96, 12.09, 12.09, 12.27, 12.71, 2.9, 2.9, 2.93, 2.97, 2.83, 3.52, 4.0, 4.0, 4.03, 4.46, 4.46, 4.71, 4.92, 4.44, 4.44, 4.13, 4.13, 4.62, 5.14, 5.14, 6.0, 7.36, 8.85, 9.08, 8.49, 8.15, 8.49, 9.48, 10.55, 11.53, 9.4, 8.73, 8.31, 8.93, 9.17, 9.1, 9.4, 8.84, 8.01, 7.06, 6.44, 8.22, 9.49, 10.15, 10.04, 10.28, 9.66, 9.0, 7.9, 8.22, 8.53, 10.12, 10.75, 11.06, 11.47, 11.82, 12.22, 12.22, 12.16, 11.14, 10.58, 12.62, 14.58, 15.77, 16.31, 15.47, 14.26, 13.51, 13.85, 14.42, 13.91, 13.51, 12.31, 9.67, 7.45, 4.98, 3.23, 1.71, 0.85, 3.6, 11.05, 14.73, 14.55, 13.92, 12.8, 12.04, 10.89, 9.97, 9.24, 9.24, 10.45, 12.49, 12.49, 12.41, 12.27, 12.71, 12.71, 12.71, 2.75, 2.9, 2.93, 2.83, 2.86, 2.86, 3.35, 3.35, 4.03, 4.05, 4.05, 4.46, 5.14, 4.25, 3.53, 4.07, 4.25, 4.62, 4.8, 5.18, 6.05, 6.42, 7.59, 7.9, 9.08, 8.49, 8.15, 9.48, 9.66, 9.76, 10.09, 9.4, 9.04, 8.64, 8.9, 9.17, 8.76, 9.22, 8.83, 6.79, 6.79, 8.17, 10.18, 10.21, 10.55, 10.28, 10.28, 10.63, 10.01, 9.08, 10.23, 9.89, 11.14, 11.47, 12.22, 12.22, 12.26, 12.26, 11.54, 10.51, 10.66, 13.11, 16.03, 16.6, 15.99, 15.47, 14.51, 13.89, 13.23, 13.04, 12.13, 11.53, 10.51, 9.18, 7.4, 5.62, 3.34, 1.76, 3.6, 10.43, 13.31, 15.11, 14.4, 13.72, 13.39, 11.47, 10.0, 8.82, 8.06, 8.79, 10.4, 12.44, 12.74, 12.27, 12.27, 12.27, 12.71, 12.27, 2.75, 2.9, 2.25, 2.28, 2.33, 2.86, 2.86, 3.35, 3.81, 4.05, 4.05, 4.05, 4.6, 4.6, 5.0, 4.5, 4.6, 4.8, 4.6, 5.9, 5.76, 5.49, 5.36, 6.18, 6.53, 6.98, 6.95, 8.37, 8.49, 8.53, 9.66, 10.55, 10.55, 10.01, 8.9, 8.09, 7.36, 6.87, 7.19, 7.56, 7.21, 7.52, 8.87, 9.21, 9.6, 10.41, 10.29, 11.64, 12.89, 13.02, 10.66, 10.58, 11.25, 11.6, 12.26, 12.27, 11.64, 11.64, 10.58, 9.96, 11.02, 13.72, 15.84, 16.19, 15.43, 14.51, 13.88, 12.87, 11.47, 10.83, 8.99, 8.25, 7.46, 6.47, 5.61, 4.37, 2.45, 2.83, 9.36, 14.64, 15.27, 14.31, 13.15, 12.4, 11.99, 11.37, 9.57, 8.31, 7.59, 8.22, 9.92, 11.99, 12.8, 13.01, 12.71, 12.27, 12.27, 12.27, 2.23, 2.35, 2.25, 2.28, 2.19, 2.21, 2.71, 3.37, 3.37, 3.81, 3.81, 3.4, 5.1, 4.4, 5.52, 4.8, 4.8, 4.92, 5.9, 6.31, 6.58, 6.3, 4.94, 4.68, 4.5, 5.46, 5.21, 6.64, 6.3, 6.98, 7.59, 8.73, 9.09, 9.66, 8.12, 7.51, 6.3, 5.86, 5.64, 5.98, 8.22, 8.41, 8.87, 9.11, 9.2, 9.65, 11.5, 13.99, 15.47, 15.86, 14.7, 12.26, 12.27, 11.9, 12.27, 11.28, 10.66, 10.01, 10.01, 10.66, 12.7, 14.64, 14.84, 15.35, 14.88, 13.88, 12.5, 11.47, 10.34, 8.06, 6.66, 5.9, 5.72, 5.15, 4.35, 2.49, 2.57, 8.17, 14.4, 16.25, 16.44, 14.11, 13.07, 11.99, 11.12, 10.19, 9.53, 8.42, 6.71, 7.09, 9.2, 11.12, 12.14, 12.8, 13.01, 12.71, 12.27, 12.27, 2.23, 2.23, 2.25, 2.28, 2.3, 2.33, 2.71, 2.89, 3.37, 3.37, 3.37, 3.56, 3.56, 3.35, 4.25, 4.25, 4.6, 4.78, 6.24, 5.98, 5.46, 5.46, 5.46, 5.21, 4.96, 5.21, 5.21, 5.59, 5.21, 5.98, 6.24, 6.58, 7.56, 7.59, 7.24, 7.19, 6.0, 5.0, 5.86, 5.69, 7.41, 8.82, 8.8, 8.14, 8.05, 9.65, 11.6, 13.04, 15.03, 15.5, 14.5, 15.12, 14.85, 14.39, 13.25, 11.88, 10.43, 7.81, 8.8, 12.04, 15.52, 16.27, 16.54, 14.79, 14.51, 13.18, 10.65, 9.37, 7.44, 6.52, 5.86, 5.9, 5.81, 5.15, 2.84, 0.75, 5.58, 12.94, 16.27, 16.89, 16.53, 15.2, 13.29, 11.75, 10.55, 9.9, 9.17, 8.09, 6.62, 7.44, 9.57, 10.65, 11.79, 12.3, 13.01, 12.58, 12.71, 12.09, 2.23, 2.23, 2.25, 2.39, 2.3, 2.33, 2.86, 2.89, 2.89, 3.37, 3.56, 3.35, 3.52, 2.86, 3.51, 3.36, 3.82, 3.37, 2.89, 2.23, 2.57, 2.69, 2.83, 2.83, 3.52, 2.83, 4.0, 4.0, 4.0, 3.87, 3.92, 4.56, 5.36, 4.56, 4.07, 4.65, 4.89, 5.92, 5.72, 5.51, 6.7, 8.43, 8.14, 7.81, 8.8, 9.6, 12.04, 12.79, 13.25, 13.27, 15.09, 17.35, 18.73, 19.51, 18.58, 17.26, 15.11, 9.24, 7.1, 11.95, 17.19, 18.58, 16.6, 15.03, 14.51, 13.41, 11.59, 8.84, 5.63, 4.25, 5.35, 5.89, 5.1, 4.3, 1.5, 1.72, 9.36, 15.12, 17.39, 17.13, 15.7, 14.65, 13.06, 11.44, 10.55, 9.53, 8.09, 7.36, 7.44, 8.93, 9.56, 10.96, 11.37, 11.87, 12.3, 12.53, 12.53, 11.87, 1.69, 2.23, 2.25, 2.39, 2.28, 2.83, 2.86, 2.86, 2.89, 2.89, 3.35, 3.52, 3.32, 3.01, 2.86, 2.71, 2.89, 2.73, 2.23, 1.73, 1.12, 0.59, 0.55, 1.32, 1.2, 2.46, 2.58, 2.32, 2.98, 2.7, 2.6, 3.51, 3.65, 2.47, 1.69, 1.6, 2.2, 4.0, 4.06, 4.87, 6.2, 8.03, 8.3, 8.17, 8.79, 10.45, 13.63, 13.99, 13.43, 12.56, 15.1, 17.68, 20.6, 23.32, 22.69, 22.72, 22.23, 15.35, 9.68, 12.07, 16.69, 18.32, 16.95, 15.43, 15.5, 16.09, 16.01, 13.74, 8.93, 5.24, 5.3, 5.41, 4.39, 3.23, 2.69, 6.6, 12.74, 16.22, 16.19, 15.34, 14.88, 13.8, 13.12, 12.22, 10.15, 9.17, 7.8, 7.44, 8.27, 8.94, 9.52, 9.84, 10.68, 11.37, 11.79, 12.3, 12.3, 12.3, 1.69, 2.23, 2.25, 2.39, 2.28, 2.8, 2.83, 2.86, 2.71, 2.89, 2.86, 2.83, 2.83, 3.32, 3.35, 2.71, 2.89, 2.23, 2.23, 2.26, 1.76, 1.05, 0.0, 0.0, 0.0, 0.54, 1.14, 1.12, 1.12, 0.56, 0.82, 1.69, 1.69, 1.56, 0.86, 0.83, 1.55, 2.37, 3.16, 4.68, 6.97, 8.65, 8.0, 7.71, 9.77, 12.07, 12.92, 12.51, 11.62, 11.6, 12.72, 14.59, 16.08, 17.42, 19.09, 20.51, 21.24, 20.83, 14.46, 13.76, 16.36, 16.71, 16.39, 15.43, 16.95, 18.09, 21.15, 22.46, 17.47, 11.88, 8.42, 6.18, 3.49, 3.45, 5.24, 10.0, 14.05, 15.24, 14.39, 13.61, 12.78, 12.42, 11.7, 10.83, 11.47, 9.7, 8.42, 7.59, 8.59, 9.3, 8.94, 9.45, 10.27, 10.85, 11.37, 11.79, 11.79, 12.04, 1.69, 1.79, 2.25, 2.28, 2.28, 2.28, 2.83, 2.83, 2.86, 2.86, 2.86, 2.83, 2.83, 3.52, 3.35, 2.89, 2.89, 2.73, 2.4, 2.26, 2.26, 1.63, 0.53, 0.0, -0.51, 0.0, 0.0, 0.0, 0.0, -0.56, -1.14, 0.0, 0.0, 0.85, 0.82, 1.58, 1.52, 1.56, 2.39, 4.8, 6.97, 7.59, 8.15, 9.6, 11.12, 12.07, 11.15, 10.6, 10.16, 10.55, 11.62, 12.47, 12.52, 12.07, 11.88, 11.72, 13.59, 16.17, 19.53, 16.19, 16.66, 16.96, 17.85, 17.82, 17.67, 18.31, 19.89, 21.89, 21.85, 16.41, 12.22, 7.68, 5.37, 5.24, 8.02, 11.28, 13.27, 13.87, 12.87, 12.22, 10.75, 9.77, 9.5, 8.76, 10.3, 9.39, 8.3, 8.64, 8.94, 8.59, 8.3, 9.27, 10.27, 10.85, 10.52, 11.79, 11.79, 11.5, 1.69, 1.79, 1.71, 2.28, 2.28, 2.28, 2.3, 2.83, 2.86, 2.86, 2.83, 2.83, 3.32, 3.52, 3.35, 2.89, 2.89, 2.73, 2.23, 2.26, 2.26, 2.26, 1.63, 0.58, 0.0, -0.61, -1.16, -1.14, -1.65, -1.73, -2.37, -2.33, -1.23, 0.0, 1.18, 1.18, 1.18, 1.68, 3.39, 4.92, 6.31, 6.98, 7.21, 8.79, 9.77, 10.28, 10.66, 10.18, 10.16, 8.94, 10.21, 10.6, 10.91, 9.54, 8.79, 9.2, 9.3, 10.12, 14.28, 17.25, 15.35, 15.02, 15.02, 15.74, 16.39, 16.79, 17.82, 17.63, 16.29, 15.8, 13.28, 10.22, 8.38, 9.0, 10.18, 11.88, 12.57, 12.16, 11.38, 10.65, 8.72, 7.36, 6.69, 6.48, 6.1, 8.31, 9.06, 9.26, 8.93, 9.0, 9.04, 9.27, 10.0, 10.4, 10.96, 11.79, 11.5, 11.5, 1.69, 1.71, 1.71, 1.73, 2.28, 2.17, 2.3, 2.3, 2.83, 2.83, 2.83, 3.32, 3.52, 3.52, 3.35, 2.71, 2.89, 2.23, 2.23, 2.26, 2.26, 2.23, 2.23, 1.71, 0.55, 0.0, -1.1, -1.73, -2.4, -2.73, -2.89, -3.52, -2.86, -1.18, 0.0, 0.78, 1.69, 2.39, 3.39, 4.8, 5.06, 6.24, 7.56, 7.76, 8.67, 9.32, 9.76, 9.21, 8.15, 8.22, 9.66, 10.21, 10.21, 9.6, 8.15, 7.44, 7.56, 8.24, 10.47, 12.8, 12.27, 11.88, 10.59, 10.94, 10.94, 11.52, 10.58, 12.01, 13.91, 14.26, 13.17, 11.38, 10.84, 11.79, 13.04, 12.96, 11.92, 10.83, 8.86, 8.06, 7.01, 5.67, 5.8, 5.6, 5.86, 6.84, 9.17, 9.96, 9.26, 8.93, 9.4, 9.84, 10.94, 10.94, 10.79, 11.21, 10.65, 10.65, 1.69, 1.71, 1.71, 1.73, 1.73, 2.3, 2.3, 2.3, 2.83, 2.83, 2.83, 3.52, 3.52, 3.52, 3.35, 2.86, 2.71, 2.23, 2.75, 2.92, 2.73, 2.37, 1.69, 1.12, 0.54, -0.57, -1.14, -2.21, -2.71, -3.37, -3.37, -3.37, -2.89, -2.49, 0.0, 0.78, 2.39, 2.33, 3.77, 4.6, 4.88, 5.89, 6.95, 6.44, 8.79, 9.76, 9.54, 8.15, 6.69, 5.69, 6.69, 8.37, 9.6, 9.1, 8.73, 8.37, 7.59, 6.97, 7.96, 10.12, 10.36, 9.17, 7.24, 7.24, 6.7, 6.57, 7.51, 8.83, 12.01, 13.95, 12.69, 10.7, 11.59, 11.48, 12.31, 13.07, 12.19, 10.73, 8.16, 7.45, 6.73, 5.8, 5.06, 5.86, 6.84, 7.78, 8.53, 8.85, 8.93, 10.01, 9.56, 9.84, 10.4, 11.47, 11.5, 10.8, 10.48, 10.48, 1.14, 1.71, 1.63, 1.73, 1.65, 2.3, 2.3, 2.3, 2.83, 2.83, 3.52, 3.52, 3.52, 3.35, 3.35, 2.86, 2.73, 2.92, 3.4, 3.37, 2.71, 1.69, 1.14, 1.12, 0.56, -0.57, -1.71, -1.71, -2.23, -2.26, -2.29, -1.76, -1.63, -1.18, 0.0, 0.85, 1.68, 2.42, 3.77, 4.05, 5.21, 7.21, 6.87, 7.76, 9.75, 9.75, 9.21, 7.56, 5.69, 5.69, 6.95, 8.54, 8.93, 8.93, 8.37, 7.27, 6.98, 7.27, 8.24, 9.17, 7.96, 6.94, 5.86, 5.64, 4.72, 4.25, 4.25, 6.76, 7.44, 8.05, 9.4, 9.76, 10.6, 10.73, 9.92, 10.6, 10.72, 9.98, 8.33, 6.47, 6.31, 5.93, 5.86, 7.73, 8.42, 7.64, 7.64, 8.22, 9.34, 10.01, 10.29, 10.43, 10.4, 11.34, 11.6, 10.66, 9.56, 9.56, 1.14, 1.15, 1.63, 1.73, 1.65, 1.75, 2.3, 2.19, 2.19, 2.86, 2.86, 3.01, 3.52, 2.86, 2.86, 3.39, 2.73, 3.4, 3.37, 3.35, 2.33, 1.71, 1.61, 2.39, 2.39, 1.28, 0.57, 0.85, 0.85, 1.1, 1.18, 0.55, 0.58, 0.0, 0.54, 0.56, 1.11, 1.73, 2.6, 3.77, 4.83, 6.83, 8.15, 8.94, 10.16, 9.6, 8.54, 7.27, 5.69, 6.69, 8.37, 9.6, 9.6, 9.32, 9.09, 8.49, 7.9, 8.22, 8.85, 7.96, 6.94, 6.94, 6.08, 4.8, 4.13, 4.25, 4.92, 5.14, 4.87, 4.95, 6.97, 8.8, 9.0, 8.26, 7.34, 5.87, 5.76, 5.8, 6.52, 6.35, 5.72, 5.86, 6.7, 7.36, 7.38, 7.51, 6.7, 6.79, 9.0, 9.92, 10.66, 10.66, 10.96, 10.94, 11.64, 10.29, 10.04, 10.04, 1.14, 1.15, 1.16, 1.65, 1.75, 1.75, 2.19, 2.19, 2.33, 2.86, 2.86, 2.86, 3.01, 3.01, 2.69, 2.86, 2.86, 3.37, 4.25, 4.13, 3.25, 2.26, 2.75, 3.36, 4.13, 4.13, 3.51, 3.52, 3.97, 4.16, 3.45, 2.93, 2.39, 1.71, 1.71, 1.63, 1.63, 1.73, 1.73, 2.3, 3.97, 6.35, 7.27, 8.15, 8.55, 9.1, 8.37, 6.69, 6.98, 7.81, 9.6, 10.6, 9.6, 9.1, 8.42, 8.38, 8.53, 7.59, 7.36, 6.94, 5.86, 5.64, 5.64, 5.64, 5.29, 6.15, 6.98, 6.84, 6.43, 5.62, 6.31, 7.4, 5.69, 4.06, 2.36, 0.8, 0.0, 0.0, 3.95, 4.87, 5.11, 5.93, 5.72, 6.56, 6.56, 5.99, 5.3, 6.31, 7.59, 8.94, 10.66, 11.26, 11.2, 11.02, 10.19, 10.28, 10.01, 10.01, 1.14, 1.15, 1.73, 1.65, 1.75, 1.67, 2.19, 2.19, 2.33, 2.86, 2.86, 2.86, 2.83, 2.83, 2.83, 2.83, 2.86, 2.86, 2.86, 3.25, 4.13, 3.35, 4.0, 3.32, 3.3, 3.45, 3.42, 3.42, 3.42, 3.42, 2.9, 2.9, 2.23, 2.23, 2.35, 1.71, 1.63, 1.73, 1.73, 2.8, 4.63, 6.35, 7.86, 8.38, 8.93, 9.67, 7.81, 7.27, 8.15, 9.6, 10.18, 10.05, 9.6, 9.6, 9.48, 8.38, 8.64, 8.27, 7.24, 6.16, 6.16, 6.16, 5.92, 5.92, 6.7, 7.48, 7.78, 8.42, 8.05, 8.06, 8.86, 7.22, 4.7, 0.0, -1.59, -2.41, -2.14, 0.0, 2.45, 4.87, 5.73, 5.86, 5.67, 5.29, 4.93, 5.0, 5.76, 6.51, 8.27, 8.58, 10.04, 11.26, 10.9, 10.15, 9.57, 9.21, 8.93, 8.93, 1.14, 1.15, 1.73, 1.65, 1.75, 1.67, 2.19, 2.33, 2.33, 2.86, 2.86, 2.69, 2.83, 2.83, 2.83, 2.83, 2.83, 2.86, 2.86, 2.86, 2.83, 3.32, 3.49, 2.8, 2.28, 2.25, 2.25, 2.25, 1.71, 1.71, 1.71, 1.71, 1.71, 1.71, 1.71, 1.71, 1.16, 1.65, 1.65, 2.8, 4.63, 6.35, 7.86, 8.15, 8.44, 8.0, 8.15, 6.95, 8.37, 10.46, 10.6, 10.05, 9.6, 9.32, 9.6, 9.48, 9.0, 8.93, 7.56, 6.5, 5.9, 6.0, 6.15, 6.7, 7.48, 7.78, 8.22, 8.53, 9.89, 11.38, 12.03, 12.69, 9.63, 2.47, -0.95, 0.0, 0.77, 1.54, 2.95, 4.31, 5.79, 6.17, 6.6, 5.67, 5.72, 5.76, 7.13, 8.64, 9.56, 9.56, 10.15, 10.55, 10.19, 9.92, 8.9, 8.57, 9.34, 9.34, 1.14, 1.14, 1.15, 1.65, 1.75, 1.67, 2.19, 2.33, 2.33, 2.33, 2.86, 2.83, 2.83, 2.83, 2.83, 2.83, 2.83, 2.83, 2.69, 2.86, 2.83, 2.83, 2.3, 2.28, 1.73, 1.73, 1.73, 1.16, 1.16, 1.16, 1.16, 1.1, 1.1, 1.15, 1.15, 1.1, 1.16, 1.11, 1.65, 2.97, 4.42, 6.08, 7.27, 7.86, 7.86, 8.08, 8.15, 8.0, 8.54, 10.05, 10.18, 10.05, 9.2, 9.2, 9.6, 9.6, 9.4, 9.96, 8.85, 6.18, 6.04, 6.83, 7.18, 7.59, 7.48, 7.78, 8.22, 8.31, 8.93, 9.56, 11.06, 12.99, 7.52, 3.45, 3.4, 3.91, 3.78, 3.61, 2.99, 2.97, 3.64, 4.07, 4.91, 5.67, 6.7, 7.48, 9.0, 9.96, 10.98, 11.25, 10.19, 10.19, 9.53, 8.9, 8.22, 8.93, 8.94, 8.94, 1.15, 1.15, 1.1, 1.16, 1.67, 1.67, 2.33, 2.33, 2.33, 2.33, 2.33, 2.3, 2.83, 2.83, 2.83, 2.97, 2.8, 2.83, 2.83, 2.83, 2.83, 2.83, 2.3, 2.17, 1.65, 1.11, 1.11, 1.11, 1.11, 1.11, 0.59, 0.59, 0.55, 0.55, 0.55, 1.16, 1.16, 1.11, 1.65, 2.83, 4.66, 5.72, 6.97, 7.59, 7.59, 8.08, 8.94, 9.1, 9.6, 10.91, 10.91, 10.05, 9.63, 9.63, 9.63, 8.93, 8.42, 9.34, 10.09, 8.82, 6.32, 6.64, 7.59, 7.48, 7.48, 7.48, 8.64, 9.42, 8.64, 8.22, 7.1, 7.07, 9.28, 7.88, 5.5, 3.41, 2.32, 2.32, 1.08, 0.0, 0.0, 0.0, 2.13, 4.58, 7.78, 9.34, 9.62, 10.3, 10.92, 11.2, 10.58, 9.53, 9.17, 8.16, 7.9, 8.27, 8.94, 8.94, 0.58, 0.58, 1.16, 1.11, 1.75, 1.67, 2.33, 2.33, 2.33, 2.33, 2.19, 2.19, 2.3, 2.83, 2.83, 2.8, 2.8, 2.28, 2.3, 2.3, 2.3, 2.3, 2.3, 2.17, 1.65, 1.11, 1.11, 0.56, 0.56, 0.56, 0.56, 0.59, 0.55, 0.55, 0.55, 0.59, 1.11, 1.11, 1.11, 2.3, 4.0, 5.72, 6.35, 6.98, 7.59, 8.08, 7.51, 7.17, 7.07, 7.74, 8.86, 10.91, 9.97, 9.63, 9.04, 8.54, 8.93, 7.76, 9.16, 8.85, 8.22, 6.18, 6.83, 6.98, 7.48, 8.31, 9.0, 9.0, 8.53, 5.86, 3.25, 4.04, 9.37, 10.52, 8.14, 3.98, 1.43, 0.0, -1.08, -1.6, -2.18, -0.74, 1.45, 6.14, 8.64, 8.93, 9.17, 9.89, 10.92, 10.81, 10.75, 9.48, 8.49, 8.12, 7.94, 7.94, 8.3, 8.3, 0.55, 0.55, 1.16, 1.11, 1.67, 1.67, 1.67, 2.33, 2.33, 2.33, 2.19, 2.19, 2.3, 2.3, 2.83, 2.8, 2.28, 2.28, 2.28, 2.3, 2.3, 2.3, 2.3, 2.17, 1.73, 1.11, 1.11, 0.56, 0.56, 0.56, 0.56, 0.59, 0.55, 0.55, 0.55, 0.59, 0.56, 0.56, 1.11, 2.3, 4.0, 5.72, 6.35, 6.98, 7.86, 8.08, 8.08, 7.17, 6.79, 8.0, 8.87, 8.42, 10.66, 9.97, 9.63, 9.04, 7.81, 7.81, 8.37, 8.82, 8.53, 7.56, 6.04, 6.31, 7.13, 8.31, 9.0, 8.93, 7.24, 5.72, 4.1, 3.47, 6.68, 10.72, 10.93, 8.14, 3.71, 0.0, -0.89, -0.89, 0.0, 1.47, 5.38, 7.94, 8.9, 9.89, 9.89, 10.22, 9.8, 9.8, 10.43, 9.73, 8.79, 7.85, 7.9, 7.9, 7.27, 7.27, 0.59, 0.59, 1.11, 1.18, 1.67, 1.67, 1.67, 1.78, 2.33, 2.19, 2.19, 2.19, 2.3, 2.3, 2.3, 2.28, 2.28, 2.28, 2.28, 1.73, 1.65, 2.3, 2.17, 1.65, 1.73, 1.16, 1.11, 0.56, 0.56, 0.0, 0.0, 0.0, 0.0, 0.0, 0.0, 0.0, 0.0, 0.0, 0.56, 1.78, 4.03, 5.72, 6.97, 7.59, 8.15, 8.37, 7.73, 7.17, 7.15, 7.81, 8.77, 8.77, 7.97, 7.4, 8.99, 8.3, 7.81, 7.44, 7.2, 7.4, 7.85, 6.7, 6.76, 6.04, 8.49, 8.38, 8.64, 7.64, 6.56, 5.11, 3.25, 2.49, 4.1, 7.57, 10.65, 11.49, 7.46, 2.89, 1.84, 2.54, 4.2, 6.42, 7.82, 8.53, 8.79, 9.43, 10.43, 9.7, 9.36, 9.06, 9.1, 8.66, 8.95, 8.42, 7.52, 7.22, 6.51, 6.51, 0.56, 0.56, 1.18, 1.12, 1.67, 1.67, 1.67, 1.67, 1.67, 1.67, 2.19, 2.19, 2.3, 2.3, 2.17, 2.28, 2.28, 2.28, 1.73, 1.73, 1.73, 1.65, 1.65, 1.65, 1.65, 1.16, 1.16, 0.59, 0.59, 0.0, 0.0, 0.0, 0.0, 0.0, 0.0, 0.0, 0.0, 0.0, 0.56, 1.69, 4.03, 5.72, 6.97, 6.95, 7.44, 7.72, 6.87, 7.21, 7.35, 8.22, 8.48, 8.17, 7.87, 7.4, 6.94, 7.76, 8.0, 8.0, 7.2, 7.06, 6.04, 5.76, 6.15, 6.83, 8.02, 8.53, 6.84, 5.86, 5.06, 4.24, 3.28, 2.49, 1.62, 2.49, 5.01, 6.64, 6.61, 5.73, 4.92, 5.06, 6.0, 5.95, 6.58, 8.01, 8.01, 8.73, 8.94, 9.11, 8.95, 8.3, 8.3, 7.63, 8.84, 7.73, 7.36, 6.71, 6.05, 6.05, 1.18, 1.18, 1.12, 1.67, 1.67, 1.67, 1.67, 1.67, 1.67, 1.67, 1.67, 1.67, 2.3, 2.3, 2.17, 2.28, 2.28, 1.73, 1.63, 1.63, 1.73, 1.73, 1.65, 1.65, 1.65, 1.16, 1.16, 0.59, 0.59, 0.0, 0.0, 0.0, 0.0, 0.0, 0.0, 0.0, 0.0, 0.0, 0.56, 1.69, 3.81, 5.72, 6.95, 7.97, 8.67, 7.35, 6.44, 7.07, 7.61, 8.0, 7.81, 7.58, 7.69, 7.26, 6.79, 5.88, 7.6, 8.0, 6.82, 6.45, 6.18, 5.29, 5.9, 7.13, 7.9, 7.36, 6.7, 5.0, 3.39, 2.53, 2.41, 2.43, 1.62, 0.0, 0.0, 0.83, 3.22, 5.61, 5.73, 4.75, 4.17, 4.6, 5.89, 6.96, 8.2, 7.85, 7.34, 7.36, 7.49, 7.25, 6.79, 6.43, 5.8, 7.19, 6.53, 5.86, 5.18, 5.18, 1.12, 1.12, 1.12, 1.67, 1.67, 1.67, 1.67, 1.67, 1.67, 1.67, 1.67, 1.67, 1.75, 1.75, 1.75, 1.73, 1.73, 1.73, 1.63, 1.1, 1.1, 1.16, 1.16, 1.16, 1.16, 1.16, 1.16, 0.59, 0.59, 0.0, 0.0, 0.0, 0.0, 0.0, 0.0, -0.56, -0.56, 0.0, 0.57, 2.37, 4.05, 5.72, 6.34, 6.92, 7.44, 8.06, 8.43, 6.95, 7.07, 6.79, 6.95, 7.31, 7.51, 7.01, 6.51, 5.81, 5.31, 5.08, 6.55, 6.11, 5.1, 5.46, 5.9, 6.83, 6.7, 6.57, 6.7, 6.51, 4.25, 1.69, 2.44, 4.13, 4.95, 2.5, -0.8, -0.8, 0.8, 3.13, 4.81, 4.13, 3.32, 4.6, 6.56, 7.57, 7.8, 7.29, 6.6, 5.63, 5.11, 4.94, 4.39, 4.1, 4.55, 6.0, 5.4, 5.0, 4.6, 4.6, 1.75, 1.75, 1.67, 1.67, 1.67, 1.67, 1.67, 1.67, 1.67, 1.67, 1.67, 1.67, 1.67, 1.75, 1.75, 1.65, 1.73, 1.63, 1.1, 1.15, 1.1, 0.55, 1.1, 1.16, 1.16, 1.16, 1.11, 0.56, 0.56, 0.0, 0.0, -0.56, -0.56, -0.56, -0.56, -0.56, -0.56, 0.0, 1.07, 2.89, 4.05, 5.1, 6.34, 6.92, 6.87, 7.41, 7.41, 6.7, 6.23, 6.23, 6.7, 7.31, 7.31, 7.01, 6.51, 6.0, 5.47, 5.08, 4.65, 5.37, 5.24, 5.21, 5.64, 5.29, 5.29, 5.29, 5.14, 6.3, 6.3, 3.92, 3.36, 4.93, 6.35, 5.8, 2.42, -0.78, 0.0, 0.81, 3.25, 4.04, 5.11, 6.36, 6.92, 7.06, 7.0, 5.81, 4.81, 3.69, 2.85, 2.91, 2.25, 2.25, 2.25, 2.18, 3.82, 3.76, 4.5, 4.5, 1.75, 1.75, 1.75, 1.75, 1.67, 1.12, 1.12, 1.12, 1.12, 1.12, 1.12, 1.12, 1.67, 1.75, 1.75, 1.65, 1.73, 1.1, 1.1, 0.58, 0.58, 0.55, 0.55, 0.55, 1.16, 1.16, 1.11, 0.56, 0.86, 0.0, 0.0, 0.0, 0.0, 0.0, 0.0, 0.0, 0.0, 1.07, 2.23, 3.37, 4.46, 5.1, 6.34, 6.92, 6.87, 6.57, 5.98, 5.98, 5.65, 6.51, 6.95, 7.08, 7.2, 6.56, 6.03, 5.75, 5.21, 4.84, 4.29, 4.11, 4.68, 4.74, 4.4, 4.5, 4.07, 4.4, 3.49, 3.92, 5.08, 4.81, 4.13, 5.2, 6.1, 6.91, 5.01, 1.59, 0.0, 1.64, 3.23, 4.38, 5.9, 6.51, 6.7, 5.18, 4.77, 4.18, 2.95, 1.76, 1.59, 0.74, 0.72, 0.0, 0.0, 0.75, 2.99, 3.61, 5.09, 5.09, 1.18, 1.18, 1.18, 1.18, 1.18, 1.12, 1.12, 1.12, 1.12, 1.12, 1.12, 1.12, 1.12, 1.12, 1.18, 1.11, 1.16, 1.1, 0.55, 0.58, 0.58, 0.58, 0.55, 0.55, 0.55, 1.16, 0.56, 0.56, 0.56, 0.0, 0.0, 0.0, 0.0, 0.0, 0.0, 0.0, 0.54, 1.69, 2.37, 3.37, 4.46, 5.1, 6.34, 6.92, 6.92, 6.28, 5.65, 5.93, 5.93, 6.15, 6.95, 7.48, 6.95, 6.41, 6.03, 5.86, 5.29, 4.94, 4.37, 4.11, 3.76, 4.12, 4.88, 4.34, 4.2, 4.4, 3.49, 2.59, 3.68, 3.73, 5.06, 4.33, 2.45, 2.52, 4.23, 4.14, 3.22, 3.34, 3.59, 4.44, 5.17, 4.3, 3.62, 2.88, 2.31, 1.79, 1.16, 0.0, 0.0, 0.0, -0.81, -0.71, -0.75, 0.74, 3.76, 4.3, 5.86, 5.86, 1.11, 1.11, 1.18, 1.18, 1.18, 1.18, 1.12, 1.12, 1.12, 1.12, 1.12, 1.12, 1.12, 1.12, 1.18, 1.11, 0.59, 0.55, 0.55, 0.58, 0.0, 0.0, 0.0, 0.55, 0.55, 0.59, 0.56, 0.56, 0.0, 0.0, 0.0, 0.0, 0.0, 0.0, 0.0, 0.57, 0.57, 1.69, 2.23, 3.37, 4.28, 5.36, 6.34, 6.92, 6.92, 6.01, 6.23, 6.15, 6.15, 6.95, 6.95, 7.34, 6.7, 6.15, 5.93, 5.86, 5.29, 5.05, 4.71, 4.12, 4.96, 4.96, 5.21, 4.88, 4.34, 3.49, 3.65, 3.36, 3.53, 3.6, 4.93, 4.98, 2.4, 0.8, 2.4, 5.81, 5.69, 3.98, 2.89, 2.25, 2.15, 1.44, 1.44, 0.74, 0.71, 0.0, 0.0, -0.57, -1.47, -1.57, -2.31, -1.71, 0.0, 2.25, 4.58, 5.2, 5.99, 5.99, 1.11, 1.11, 1.11, 1.18, 1.18, 1.18, 1.18, 1.12, 1.12, 1.12, 1.12, 1.12, 1.12, 1.12, 0.59, 0.56, 0.59, 0.55, 0.55, 0.0, 0.0, 0.0, 0.0, 0.0, 0.55, 0.59, 0.56, 0.56, 0.0, 0.0, 0.0, 0.0, 0.0, 0.0, 0.0, 0.0, 0.54, 1.16, 2.23, 3.37, 4.03, 5.36, 6.34, 6.92, 6.32, 6.28, 6.23, 6.51, 6.41, 6.95, 7.08, 6.7, 6.7, 6.15, 5.93, 5.35, 5.01, 4.74, 4.43, 3.84, 3.76, 4.96, 4.96, 3.7, 3.87, 3.87, 3.49, 3.51, 3.39, 3.19, 3.82, 3.76, 2.5, 1.59, 2.42, 4.88, 6.5, 4.82, 3.16, 1.63, 0.73, 0.73, 0.0, 0.0, 0.0, 0.0, -0.58, -0.77, -0.75, -0.8, -0.76, 0.0, 1.63, 3.76, 5.1, 5.1, 5.89, 5.89, 1.11, 1.11, 1.11, 1.11, 1.18, 1.18, 1.18, 1.18, 1.18, 0.59, 0.56, 0.56, 0.56, 0.59, 0.59, 0.56, 0.59, 0.55, 0.0, 0.0, 0.0, 0.0, 0.0, 0.0, 0.55, 0.55, 0.56, 0.0, 0.0, 0.0, 0.0, 0.0, 0.0, 0.0, 0.0, 0.0, 0.55, 1.16, 2.23, 3.37, 4.03, 5.45, 6.64, 6.32, 6.62, 6.62, 6.28, 6.23, 6.41, 6.95, 7.34, 6.7, 6.51, 5.65, 5.59, 5.35, 4.74, 4.74, 4.12, 3.84, 3.47, 3.47, 3.7, 3.45, 3.49, 3.61, 2.47, 2.49, 2.41, 2.51, 3.73, 4.1, 4.54, 3.22, 2.45, 4.04, 5.6, 5.6, 4.04, 2.89, 2.13, 1.46, 0.72, 0.72, 0.72, 0.74, 0.8, 2.34, 3.16, 3.16, 2.41, 3.29, 4.17, 4.33, 3.68, 3.82, 4.48, 4.48, 1.11, 1.11, 1.11, 1.11, 1.11, 1.18, 1.18, 0.59, 0.59, 0.59, 0.59, 0.59, 0.59, 0.59, 0.56, 0.56, 0.0, 0.0, 0.0, 0.0, 0.0, 0.0, 0.0, 0.0, 0.0, 0.0, 0.0, 0.0, 0.0, 0.0, 0.0, 0.0, 0.0, 0.0, 0.0, 0.0, 0.55, 1.09, 2.23, 3.37, 4.45, 5.72, 6.92, 8.38, 6.52, 6.28, 6.28, 6.23, 6.95, 6.95, 6.7, 6.23, 5.98, 5.65, 5.06, 5.06, 4.45, 4.45, 3.84, 3.84, 3.47, 3.47, 4.0, 2.69, 3.49, 2.49, 2.47, 2.49, 2.49, 2.6, 3.42, 4.1, 4.73, 4.61, 3.32, 2.37, 3.33, 4.16, 3.96, 3.69, 3.59, 2.87, 2.18, 2.22, 2.93, 3.82, 5.1, 5.4, 5.6, 5.6, 4.93, 3.82, 3.82, 3.32, 2.44, 2.28, 2.28, 3.6, 1.11, 1.11, 1.11, 1.11, 0.56, 0.56, 0.56, 0.56, 0.56, 0.56, 0.56, 0.56, 0.56, 0.56, 0.56, 0.0, 0.0, 0.0, 0.0, 0.0, 0.0, 0.0, 0.0, 0.0, 0.0, 0.0, 0.0, 0.0, 0.0, 0.0, 0.0, 0.0, 0.0, 0.0, 0.0, 0.0, 0.55, 1.71, 2.73, 3.37, 4.69, 5.72, 6.87, 8.38, 6.87, 6.28, 6.28, 6.23, 6.7, 6.51, 6.51, 5.65, 5.65, 5.37, 5.06, 4.75, 4.45, 4.12, 3.84, 3.47, 3.47, 3.47, 4.0, 2.54, 2.57, 2.39, 2.49, 2.59, 2.49, 3.39, 4.13, 4.81, 4.81, 5.76, 4.91, 2.37, 0.84, 0.79, 2.17, 2.95, 2.87, 3.04, 3.73, 4.24, 5.02, 6.0, 6.79, 6.2, 5.38, 4.0, 3.14, 3.04, 2.37, 1.71, 1.64, 1.48, 1.48, 2.28, 0.56, 0.56, 0.56, 0.56, 0.56, 0.56, 0.56, 0.56, 0.56, 0.56, 0.0, 0.0, 0.0, 0.0, 0.0, 0.0, 0.0, 0.0, 0.0, 0.0, 0.0, 0.0, 0.0, 0.0, 0.0, 0.0, 0.0, 0.0, 0.0, 0.0, 0.0, 0.0, 0.0, 0.0, 0.0, 0.0, 1.16, 2.23, 2.89, 4.03, 4.69, 5.72, 6.28, 6.79, 8.03, 6.28, 6.28, 6.57, 6.23, 5.65, 5.65, 5.37, 5.37, 5.06, 4.75, 4.45, 4.12, 3.84, 3.47, 3.47, 3.47, 3.72, 2.8, 2.46, 2.58, 2.39, 2.7, 2.59, 3.51, 4.13, 4.13, 4.3, 4.74, 5.94, 6.97, 5.72, 3.3, 1.63, 1.58, 2.18, 2.99, 3.6, 4.39, 5.2, 5.71, 5.81, 5.18, 4.52, 3.17, 2.33, 1.61, 1.55, 0.78, 0.8, 0.83, 0.83, 0.73, 1.48, 0.59, 0.59, 0.59, 0.56, 0.56, 0.56, 0.56, 0.56, 0.0, 0.0, 0.0, 0.0, 0.0, 0.0, 0.0, 0.0, 0.0, 0.0, 0.0, 0.0, 0.0, 0.0, 0.0, 0.0, 0.0, 0.0, 0.0, 0.0, 0.0, 0.0, 0.0, 0.0, 0.0, 0.0, 0.0, 0.58, 1.71, 2.23, 2.89, 3.56, 4.45, 5.36, 6.28, 6.23, 5.65, 7.35, 6.28, 6.28, 5.69, 5.65, 5.37, 5.06, 4.47, 4.47, 4.47, 4.12, 4.12, 3.47, 3.47, 3.47, 3.47, 3.47, 4.0, 3.8, 3.52, 3.7, 2.57, 3.61, 3.49, 4.25, 4.13, 4.3, 3.6, 4.89, 6.93, 8.13, 7.34, 5.72, 4.91, 4.1, 4.24, 4.39, 4.31, 4.46, 4.38, 4.31, 3.75, 2.35, 1.53, 1.57, 0.79, 0.0, 0.0, 0.0, 0.0, 0.0, 0.0, 0.0, 0.59, 0.59, 0.59, 0.56, 0.56, 0.56, 0.0, 0.0, 0.0, 0.0, 0.0, 0.0, 0.0, 0.0, 0.0, 0.0, 0.0, 0.0, 0.0, -0.55, 0.0, 0.0, 0.0, 0.0, 0.0, 0.0, 0.0, 0.0, 0.0, 0.0, 0.0, 0.0, 0.0, 0.0, 0.0, 0.55, 1.71, 2.23, 2.89, 3.56, 4.03, 5.1, 5.69, 5.98, 5.65, 5.65, 5.69, 5.69, 5.38, 5.08, 4.75, 4.47, 4.47, 4.47, 4.1, 3.85, 3.84, 3.47, 3.47, 3.47, 3.04, 3.04, 3.04, 4.0, 4.0, 3.7, 3.7, 3.87, 4.2, 4.25, 4.13, 3.39, 2.45, 3.32, 4.66, 6.87, 9.13, 9.72, 8.92, 8.12, 6.51, 4.31, 3.71, 2.91, 2.91, 2.49, 1.58, 1.58, 0.77, 0.0, 0.0, 0.0, 0.0, -0.86, 0.0, 0.0, 0.0, 0.0, 0.59, 0.59, 0.59, 0.56, 0.56, 0.0, 0.0, 0.0, 0.0, 0.0, 0.0, 0.0, 0.0, 0.0, 0.0, 0.0, 0.0, 0.0, -0.55, -0.55, 0.0, 0.0, 0.0, 0.0, 0.0, 0.0, 0.0, 0.0, 0.0, 0.0, 0.0, 0.0, 0.0, 0.0, 0.0, 0.55, 1.71, 2.37, 2.71, 3.37, 3.81, 5.1, 5.69, 5.69, 5.65, 5.37, 5.08, 5.08, 5.08, 5.08, 4.75, 4.47, 4.1, 4.1, 4.1, 3.85, 3.47, 3.47, 3.47, 3.04, 3.04, 2.8, 3.04, 4.0, 3.8, 4.0, 3.7, 3.87, 4.2, 4.07, 3.51, 2.49, 2.41, 2.53, 3.14, 4.16, 7.34, 9.85, 10.69, 10.46, 9.76, 6.43, 3.64, 2.25, 1.46, 0.72, 0.77, 0.0, 0.0, 0.0, -0.79, -1.55, -1.64, -0.89, 0.0, 0.0, 0.0, 0.0, 0.59, 0.59, 0.56, 0.56, 0.0, 0.0, 0.0, 0.0, 0.0, 0.0, 0.0, 0.0, 0.0, 0.0, 0.0, 0.0, 0.0, -0.55, -0.55, -0.59, -0.59, 0.0, 0.0, 0.0, 0.0, 0.0, 0.0, 0.0, 0.0, 0.0, 0.0, 0.0, 0.0, 0.0, 0.0, 0.58, 1.71, 2.21, 2.71, 3.37, 4.05, 4.73, 5.38, 5.08, 5.08, 5.08, 5.08, 5.08, 4.75, 4.75, 4.47, 4.1, 4.1, 4.1, 3.85, 3.72, 3.47, 3.47, 3.04, 3.04, 3.04, 2.8, 2.8, 3.04, 4.0, 4.0, 3.7, 2.57, 3.49, 2.47, 2.6, 1.76, 1.63, 2.53, 3.34, 4.13, 5.67, 7.34, 8.92, 10.59, 11.62, 9.9, 5.81, 2.81, 1.44, 0.71, 0.0, 0.0, 0.0, -0.76, -1.13, -1.67, -0.94, -0.95, 0.0, 0.0, 0.0, 0.0, 0.59, 0.59, 0.56, 0.0, 0.0, 0.0, 0.0, 0.0, 0.0, 0.0, 0.0, 0.0, 0.0, 0.0, 0.0, 0.0, -0.55, -0.55, -0.55, -0.59, -0.59, 0.0, 0.0, 0.0, -0.55, -0.55, 0.0, 0.0, 0.0, 0.0, 0.0, 0.0, 0.0, 0.0, 0.0, 0.54, 1.69, 1.78, 2.21, 3.37, 3.83, 4.47, 5.08, 5.08, 5.08, 5.08, 5.08, 4.75, 4.75, 4.47, 4.1, 4.1, 4.1, 4.1, 3.85, 3.72, 3.47, 3.47, 3.04, 3.04, 3.04, 2.8, 3.04, 3.04, 2.8, 2.46, 2.46, 1.67, 1.68, 1.76, 1.62, 1.69, 1.63, 2.44, 3.23, 4.24, 4.91, 5.56, 7.27, 8.12, 10.59, 11.58, 9.07, 5.64, 2.93, 1.5, 0.0, 0.0, -0.83, -1.23, 0.0, 0.0, -0.96, 0.0, 0.0, 0.0, 0.0, 0.0, 0.0, 0.0, 0.0, 0.0, 0.0, 0.0, 0.0, 0.0, 0.0, 0.0, 0.0, 0.0, 0.0, 0.0, -0.59, -0.59, -0.55, -1.1, -1.16, -0.59, -0.56, -0.59, -0.55, -0.55, -0.55, -0.55, -0.55, -0.55, 0.0, 0.0, 0.0, 0.0, 0.0, 0.0, 0.0, 0.57, 1.12, 1.78, 2.89, 3.4, 3.83, 4.47, 4.47, 5.08, 5.08, 5.08, 4.75, 4.75, 4.47, 4.1, 4.1, 3.84, 3.84, 3.68, 3.45, 3.45, 3.47, 3.47, 3.04, 2.82, 2.82, 2.36, 2.36, 2.82, 2.82, 2.83, 1.26, 1.26, 1.33, 1.84, 1.76, 1.69, 2.41, 2.44, 3.32, 3.34, 4.13, 4.91, 5.96, 6.66, 8.12, 9.93, 10.72, 8.89, 4.95, 1.5, 0.0, 0.0, 0.0, 0.0, 0.0, 0.0, 0.0, 0.0, 0.0, 0.0, 0.0, 0.0, 0.0, 0.0, 0.0, 0.0, 0.0, 0.0, 0.0, 0.0, 0.0, 0.0, 0.0, 0.0, -0.56, -0.56, -0.59, -0.59, -1.1, -1.1, -1.16, -1.11, -0.56, -0.59, -0.55, -0.55, -0.55, -0.55, -0.55, -0.55, -0.55, 0.0, 0.0, 0.0, 0.0, 0.0, 0.0, 0.56, 1.12, 1.78, 2.89, 3.4, 4.08, 4.47, 4.47, 4.75, 4.75, 4.75, 4.47, 4.47, 3.84, 3.84, 3.84, 3.84, 3.42, 3.68, 3.45, 3.22, 3.47, 3.04, 2.82, 2.82, 2.36, 2.36, 2.36, 2.18, 2.18, 2.69, 2.46, 2.46, 2.58, 2.7, 2.59, 2.49, 2.41, 2.61, 2.44, 3.44, 3.34, 4.13, 5.91, 6.6, 6.54, 8.07, 10.78, 11.04, 7.3, 3.6, 1.54, 0.79, 0.0, 0.0, 0.0, 0.0, 0.0, 0.0, 1.05, 0.96, 0.96, 0.96, 0.0, 0.0, 0.0, 0.0, 0.0, 0.0, 0.0, 0.0, -0.56, -0.56, -0.56, -0.56, -0.56, -0.56, -0.59, -1.16, -1.1, -1.16, -1.11, -1.11, -0.56, -0.56, -0.59, -0.59, -0.59, -0.59, -0.55, -0.55, -0.59, -0.59, -0.56, -0.56, 0.0, 0.0, 0.0, 0.56, 1.12, 2.21, 2.73, 3.4, 4.08, 4.47, 4.47, 4.47, 4.75, 4.47, 4.47, 4.08, 3.84, 3.84, 3.84, 3.42, 3.42, 3.21, 3.45, 3.22, 3.04, 3.04, 2.82, 2.82, 2.36, 2.36, 2.18, 2.18, 1.7, 2.67, 2.54, 2.57, 2.57, 2.47, 1.76, 0.82, 1.63, 1.7, 2.44, 2.53, 3.23, 4.1, 4.87, 5.73, 6.47, 7.2, 9.66, 10.56, 8.68, 5.2, 2.6, 2.0, 0.98, 0.0, 0.0, 0.0, 0.0, 1.08, 0.96, 1.05, 1.05, 1.05, 0.0, 0.0, 0.0, 0.0, 0.0, -0.56, -0.56, -0.56, -0.56, -0.56, -0.59, -0.56, -0.56, -0.56, -1.16, -1.16, -1.16, -1.73, -1.11, -1.18, -0.56, -0.56, -0.56, -0.59, -0.59, -0.59, -0.59, -0.59, -0.59, -0.59, -0.56, -0.56, 0.0, 0.0, 0.56, 1.11, 1.67, 2.21, 2.92, 3.4, 4.08, 4.47, 4.47, 4.47, 4.47, 4.47, 4.08, 4.08, 3.84, 3.84, 3.42, 3.42, 3.42, 3.45, 3.45, 2.8, 3.04, 2.82, 2.82, 2.36, 2.36, 2.18, 2.18, 1.7, 1.73, 1.96, 2.67, 2.69, 2.57, 2.7, 1.68, 1.76, 0.82, 0.82, 1.7, 2.44, 3.32, 4.21, 4.81, 5.86, 5.73, 6.6, 7.53, 8.07, 7.45, 3.88, 3.0, 1.55, 0.88, 0.88, 0.0, 0.0, 1.13, 1.08, 1.19, 0.96, 0.96, 0.96, 0.0, 0.0, -0.56, -0.56, -0.56, -0.59, -0.59, -0.59, -0.56, -0.56, -0.56, -0.59, -1.11, -1.11, -1.16, -1.16, -1.73, -1.73, -1.18, -0.56, -0.56, -0.59, -0.56, -0.56, -0.56, -0.56, -0.59, -0.59, -0.59, -0.56, -0.56, -0.56, 0.0, 0.0, 0.56, 1.11, 1.67, 2.37, 3.4, 3.4, 4.08, 4.47, 4.47, 4.47, 4.47, 4.08, 4.08, 4.08, 3.84, 3.42, 3.42, 3.42, 3.42, 3.0, 2.8, 2.8, 3.04, 2.82, 2.36, 2.36, 2.18, 1.7, 1.7, 1.7, 1.73, 1.16, 1.73, 2.54, 2.69, 3.32, 3.49, 2.59, 1.68, 1.68, 0.89, 2.51, 3.42, 4.33, 4.93, 4.81, 4.98, 4.98, 5.02, 4.79, 3.64, 3.69, 2.31, 0.82, 0.79, 2.0, 2.0, 1.8, 1.08, 1.19, 1.19, 2.2, 2.2, 2.2, -0.59, -0.59, -0.59, -0.56, -0.56, -0.56, -0.56, -0.56, -0.56, -0.56, -0.56, -1.12, -1.18, -1.11, -1.16, -1.73, -1.73, -1.65, -1.12, -0.56, -0.56, -0.56, -0.56, -1.11, -1.11, -0.56, -0.56, -0.59, -0.59, -0.56, -0.56, -0.56, 0.0, 0.0, 0.56, 1.11, 2.33, 2.89, 3.37, 3.83, 3.83, 4.47, 4.47, 4.47, 4.08, 4.08, 4.08, 4.08, 3.42, 3.42, 3.42, 3.42, 2.77, 3.0, 2.8, 2.8, 2.82, 2.36, 2.36, 2.36, 2.18, 1.7, 1.7, 1.7, 1.07, 1.16, 0.95, 1.73, 2.54, 2.83, 3.32, 3.49, 3.36, 2.7, 1.68, 3.51, 4.13, 4.17, 4.33, 4.06, 4.21, 4.1, 4.13, 3.22, 2.95, 2.15, 0.73, 0.0, 0.0, 1.13, 1.8, 2.0, 2.2, 1.99, 2.16, 2.4, 2.4, 2.4, -0.56, -0.56, -0.56, -0.56, -0.56, -0.56, -0.56, -0.56, -0.56, -0.56, -1.12, -1.12, -1.18, -1.11, -1.73, -1.73, -1.73, -1.75, -1.12, -0.57, -0.54, -0.56, -0.59, -1.18, -1.11, -1.11, -0.56, -0.59, -1.16, -1.11, -0.56, -0.56, 0.0, 0.0, 1.11, 1.75, 2.33, 2.89, 3.37, 4.05, 3.83, 4.08, 4.47, 4.47, 4.08, 4.08, 4.08, 3.64, 3.42, 3.42, 3.42, 2.96, 3.0, 3.0, 2.8, 2.8, 2.36, 2.36, 2.36, 2.18, 1.7, 1.7, 1.7, 1.07, 1.07, 1.16, 1.16, 1.26, 1.84, 1.84, 1.75, 1.84, 2.47, 3.36, 3.49, 4.4, 4.25, 4.3, 4.01, 3.29, 4.17, 4.21, 4.88, 4.94, 3.64, 1.5, 0.0, -2.0, -1.2, 0.0, 1.13, 1.8, 2.2, 2.16, 2.99, 2.16, 2.16, 2.16, -0.56, -0.56, -0.57, -0.57, -0.57, -0.57, -0.57, -0.57, -0.57, -0.56, -1.12, -1.12, -1.18, -1.18, -1.73, -1.73, -1.73, -1.75, -1.14, -0.57, -0.57, -0.56, -0.56, -1.12, -1.18, -1.11, -1.11, -1.16, -1.16, -1.11, -0.56, -0.56, 0.0, 0.56, 1.11, 1.75, 2.33, 2.89, 3.37, 3.6, 3.83, 4.08, 4.08, 4.08, 4.08, 4.08, 3.4, 3.64, 3.42, 3.42, 3.42, 2.77, 3.0, 2.8, 2.32, 2.32, 2.36, 2.36, 2.36, 1.7, 1.7, 1.7, 1.07, 1.07, 1.07, 1.07, 0.59, 0.59, 0.89, 0.89, 0.85, 1.75, 1.68, 2.59, 2.47, 2.47, 4.07, 3.25, 3.53, 3.53, 3.29, 4.33, 5.67, 7.11, 5.56, 2.59, 0.0, -1.27, 0.0, 0.0, 0.99, 1.13, 2.48, 2.2, 2.16, 1.99, 1.99, 1.99, -0.57, -0.57, -0.57, -0.57, -0.54, -0.57, -0.57, -0.57, -0.57, -1.14, -1.12, -1.12, -1.12, -1.75, -1.65, -1.73, -2.28, -1.67, -1.14, -0.54, -0.57, -0.57, -0.56, -1.12, -1.12, -1.11, -1.11, -1.16, -1.11, -1.11, -0.56, 0.0, 0.0, 0.56, 1.11, 1.67, 2.21, 2.89, 3.18, 3.4, 3.83, 4.08, 4.08, 4.08, 4.08, 3.83, 3.4, 3.4, 3.42, 3.42, 2.96, 2.77, 3.0, 2.32, 2.32, 2.16, 2.36, 2.36, 1.7, 1.7, 1.7, 1.16, 1.07, 1.07, 1.07, 0.54, 0.54, 0.61, 0.59, 0.89, 0.85, 0.89, 0.81, 1.68, 2.47, 1.68, 1.68, 2.49, 2.6, 2.6, 3.39, 4.21, 5.02, 6.37, 6.52, 3.32, 0.74, 0.88, 1.55, 2.4, 2.53, 2.0, 1.8, 2.0, 2.2, 2.4, 2.4, 2.4, -0.57, -0.57, -0.57, -0.54, -0.54, -0.54, -0.57, -0.57, -0.57, -1.14, -1.12, -1.12, -1.67, -1.75, -1.65, -2.28, -2.3, -1.78, -1.07, -0.58, -0.54, -0.57, -0.57, -1.12, -1.12, -1.11, -1.11, -1.16, -1.11, -1.11, -0.56, 0.0, 0.0, 0.56, 1.18, 1.67, 2.21, 2.89, 3.37, 3.4, 3.83, 3.83, 4.08, 4.08, 3.83, 3.4, 3.4, 3.4, 3.42, 2.96, 2.96, 2.77, 2.32, 2.32, 2.32, 2.16, 1.67, 1.84, 1.7, 1.7, 1.16, 1.07, 1.07, 1.19, 0.61, 0.54, 0.61, 0.61, 0.0, 0.0, 0.0, 0.85, 1.67, 1.75, 2.7, 1.68, 0.85, 0.89, 1.69, 1.69, 3.29, 3.32, 3.34, 4.1, 4.16, 3.22, 2.21, 3.15, 3.8, 4.0, 3.15, 3.09, 2.47, 2.4, 2.48, 2.73, 2.73, 2.73, 0.0, 0.0, 0.0, 0.0, 0.0, -0.57, -0.57, -0.57, -0.57, -1.14, -1.12, -1.67, -1.67, -1.75, -2.17, -2.28, -2.3, -1.69, -0.58, -0.58, -0.58, -0.57, -1.14, -1.12, -1.12, -1.11, -1.16, -1.16, -1.16, -1.11, -0.59, 0.0, 0.0, 1.18, 1.67, 1.78, 2.21, 2.89, 2.89, 3.4, 3.4, 3.83, 3.83, 3.83, 3.4, 3.4, 3.4, 3.4, 2.96, 2.96, 2.77, 2.29, 2.32, 2.32, 2.32, 1.67, 1.67, 1.84, 1.7, 1.16, 1.16, 1.07, 1.07, 0.61, 0.61, 0.61, 0.61, 0.0, 0.0, 0.0, 0.84, 0.89, 1.84, 1.67, 1.75, 1.75, 1.84, 1.68, 0.89, 2.49, 2.41, 2.44, 2.39, 1.59, 2.48, 2.45, 2.45, 2.89, 3.69, 3.85, 3.69, 2.89, 3.06, 2.67, 2.99, 2.95, 2.95, 2.95, 0.0, 0.0, 0.0, 0.0, 0.0, -0.57, -0.57, -0.57, -0.57, -1.12, -1.12, -1.67, -1.67, -1.75, -2.17, -2.17, -1.67, -1.07, -0.55, -0.55, -0.58, -0.54, -1.14, -1.14, -1.12, -1.65, -1.73, -1.16, -1.16, -1.11, -0.56, 0.0, 0.56, 1.12, 1.67, 1.78, 2.21, 2.89, 2.89, 3.4, 3.4, 3.4, 3.4, 3.4, 3.4, 3.4, 3.4, 2.75, 2.96, 2.96, 2.77, 2.29, 2.32, 2.32, 1.8, 1.67, 1.67, 1.7, 1.16, 1.16, 1.16, 1.07, 0.54, 0.54, 0.61, 0.61, 0.0, 0.0, 0.0, 0.0, 0.0, 0.89, 0.89, 1.84, 1.67, 1.75, 1.68, 1.68, 1.76, 1.69, 1.63, 1.64, 0.81, 0.8, 1.58, 2.45, 2.39, 3.02, 3.02, 3.02, 3.02, 3.16, 3.69, 3.36, 3.45, 2.64, 2.64, 2.64, 0.0, 0.0, 0.0, 0.0, 0.0, -0.57, -0.57, -0.57, -1.12, -1.12, -1.12, -1.67, -1.75, -1.75, -2.17, -2.3, -1.78, -1.16, -0.55, -0.55, -0.58, -1.16, -1.14, -1.14, -1.75, -1.65, -1.73, -1.16, -1.16, -1.11, -0.56, 0.0, 0.56, 1.12, 1.67, 1.69, 2.21, 2.89, 2.89, 3.4, 3.4, 3.4, 3.4, 3.4, 3.4, 2.92, 2.92, 2.75, 2.75, 2.96, 2.29, 2.29, 2.32, 1.8, 1.67, 1.67, 1.67, 1.05, 1.16, 1.16, 1.16, 0.54, 0.54, 0.54, 0.54, 0.0, 0.0, 0.0, 0.0, 0.0, 0.0, 0.0, 0.89, 1.26, 0.89, 1.75, 0.85, 0.85, 0.85, 0.82, 1.63, 0.83, 0.83, 0.82, 1.61, 3.24, 3.25, 3.29, 3.02, 2.31, 3.02, 3.02, 3.85, 4.5, 4.5, 3.61, 3.61, 3.61, 0.0, 0.0, 0.0, 0.0, 0.0, -0.57, -0.57, -0.56, -1.12, -1.12, -1.67, -1.67, -1.75, -2.3, -2.3, -2.3, -1.69, -1.16, -0.55, -0.55, -0.58, -1.16, -1.14, -1.14, -1.75, -1.65, -1.73, -1.16, -1.11, -0.56, 0.0, 0.0, 0.56, 1.12, 1.78, 1.69, 2.21, 2.37, 2.73, 2.92, 3.4, 3.4, 3.4, 2.92, 2.92, 2.92, 2.75, 2.75, 2.75, 2.44, 2.29, 2.14, 2.14, 1.8, 1.67, 1.67, 1.14, 1.14, 1.16, 1.16, 0.59, 0.59, 0.54, 0.54, 0.54, 0.0, 0.0, 0.0, 0.0, 0.0, -0.59, 0.0, 0.0, 0.0, 0.0, 0.0, 0.0, 0.85, 0.0, 0.0, 0.0, 0.0, 0.83, 0.81, 1.64, 3.32, 4.04, 3.32, 3.39, 3.39, 3.39, 3.39, 3.85, 4.23, 4.4, 4.3, 4.3, 4.3, 0.0, 0.0, 0.0, 0.0, 0.0, -0.57, -0.57, -0.56, -1.12, -1.12, -1.67, -1.67, -1.75, -2.3, -2.3, -2.3, -1.69, -1.16, -0.55, -0.55, -0.58, -1.16, -1.14, -1.14, -1.75, -1.65, -1.73, -1.16, -1.11, -0.56, 0.0, 0.0, 0.56, 1.12, 1.78, 1.69, 2.21, 2.37, 2.73, 2.92, 3.4, 3.4, 3.4, 2.92, 2.92, 2.92, 2.75, 2.75, 2.75, 2.44, 2.29, 2.14, 2.14, 1.8, 1.67, 1.67, 1.14, 1.14, 1.16, 1.16, 0.59, 0.59, 0.54, 0.54, 0.54, 0.0, 0.0, 0.0, 0.0, 0.0, -0.59, 0.0, 0.0, 0.0, 0.0, 0.0, 0.0, 0.85, 0.0, 0.0, 0.0, 0.0, 0.0, 0.81, 1.58, 3.3, 4.16, 4.1, 4.06, 3.29, 3.29, 4.01, 4.01, 4.01, 4.01, 3.29, 3.29, 3.29]}]